Time,TemperatureF,DewpointF,PressureIn,WindDirection,WindDirectionDegrees,WindSpeedMPH,WindSpeedGustMPH,Humidity,HourlyPrecipIn,Conditions,Clouds,dailyrainin,SoftwareType,DateUTC
2013-04-11 00:00:00,42.8,33.0,29.66,WNW,293,12.1,18.6,68,0.00,,,0.00,WUHU216HW,2013-04-11 06:00:00,
2013-04-11 00:04:00,42.8,32.7,29.65,WNW,293,16.3,18.6,67,0.00,,,0.00,WUHU216HW,2013-04-11 06:04:00,
2013-04-11 00:05:00,42.8,31.9,29.65,NW,315,15.4,18.6,65,0.00,,,0.00,WUHU216HW,2013-04-11 06:05:00,
2013-04-11 00:09:00,43.0,31.7,29.65,NW,315,17.7,17.7,64,0.00,,,0.00,WUHU216HW,2013-04-11 06:09:00,
2013-04-11 00:11:00,43.0,31.7,29.66,NW,315,13.0,17.7,64,0.00,,,0.00,WUHU216HW,2013-04-11 06:11:00,
2013-04-11 00:14:00,43.2,31.8,29.66,NNW,338,15.4,21.7,64,0.00,,,0.00,WUHU216HW,2013-04-11 06:14:00,
2013-04-11 00:16:00,43.0,32.1,29.66,NNW,338,10.1,21.7,65,0.00,,,0.00,WUHU216HW,2013-04-11 06:16:00,
2013-04-11 00:19:00,43.0,32.1,29.66,NNW,338,13.9,22.4,65,0.00,,,0.00,WUHU216HW,2013-04-11 06:19:00,
2013-04-11 00:20:00,43.0,32.1,29.66,NNW,338,12.8,22.4,65,0.00,,,0.00,WUHU216HW,2013-04-11 06:20:00,
2013-04-11 00:21:00,42.8,31.9,29.66,NNW,338,12.3,22.4,65,0.00,,,0.00,WUHU216HW,2013-04-11 06:21:00,
2013-04-11 00:25:00,42.7,32.5,29.66,North,0,9.4,22.4,67,0.00,,,0.00,WUHU216HW,2013-04-11 06:25:00,
2013-04-11 00:26:00,42.7,32.5,29.66,North,0,15.7,22.4,67,0.00,,,0.00,WUHU216HW,2013-04-11 06:26:00,
2013-04-11 00:30:00,42.7,32.9,29.67,NNW,338,11.2,16.3,68,0.00,,,0.00,WUHU216HW,2013-04-11 06:30:00,
2013-04-11 00:32:00,42.5,32.7,29.67,NNW,338,16.1,16.3,68,0.00,,,0.00,WUHU216HW,2013-04-11 06:32:00,
2013-04-11 00:35:00,42.3,32.5,29.67,NW,315,11.9,16.3,68,0.00,,,0.00,WUHU216HW,2013-04-11 06:35:00,
2013-04-11 00:38:00,42.1,32.3,29.66,NNW,338,14.5,16.8,68,0.00,,,0.00,WUHU216HW,2013-04-11 06:38:00,
2013-04-11 00:40:00,42.1,32.3,29.66,NW,315,11.4,16.8,68,0.00,,,0.00,WUHU216HW,2013-04-11 06:40:00,
2013-04-11 00:43:00,42.1,32.3,29.66,NW,315,12.3,16.8,68,0.00,,,0.00,WUHU216HW,2013-04-11 06:43:00,
2013-04-11 00:45:00,42.1,32.3,29.66,NNW,338,6.7,16.8,68,0.00,,,0.00,WUHU216HW,2013-04-11 06:45:00,
2013-04-11 00:49:00,41.8,32.0,29.67,West,270,7.8,15.7,68,0.00,,,0.00,WUHU216HW,2013-04-11 06:49:00,
2013-04-11 00:50:00,41.6,31.4,29.67,NNW,338,8.3,15.7,67,0.00,,,0.00,WUHU216HW,2013-04-11 06:50:00,
2013-04-11 00:54:00,41.4,31.7,29.67,North,0,4.7,12.1,68,0.00,,,0.00,WUHU216HW,2013-04-11 06:54:00,
2013-04-11 00:55:00,41.4,31.7,29.67,North,0,5.1,12.1,68,0.00,,,0.00,WUHU216HW,2013-04-11 06:55:00,
2013-04-11 00:56:00,41.4,32.1,29.67,North,0,6.0,12.1,69,0.00,,,0.00,WUHU216HW,2013-04-11 06:56:00,
2013-04-11 00:59:00,41.2,31.5,29.66,North,0,5.4,10.5,68,0.00,,,0.00,WUHU216HW,2013-04-11 06:59:00,
2013-04-11 01:00:00,41.2,31.5,29.67,NNW,338,10.5,10.5,68,0.00,,,0.00,WUHU216HW,2013-04-11 07:00:00,
2013-04-11 01:01:00,41.2,31.5,29.67,North,0,6.0,10.5,68,0.00,,,0.00,WUHU216HW,2013-04-11 07:01:00,
2013-04-11 01:02:00,41.4,31.2,29.67,North,0,9.8,11.2,67,0.00,,,0.00,WUHU216HW,2013-04-11 07:02:00,
2013-04-11 01:04:00,41.8,31.6,29.67,North,0,5.4,11.2,67,0.00,,,0.00,WUHU216HW,2013-04-11 07:04:00,
2013-04-11 01:05:00,41.6,31.4,29.67,NNW,338,8.3,11.2,67,0.00,,,0.00,WUHU216HW,2013-04-11 07:05:00,
2013-04-11 01:06:00,41.6,31.4,29.67,NNW,338,7.6,11.2,67,0.00,,,0.00,WUHU216HW,2013-04-11 07:06:00,
2013-04-11 01:07:00,41.6,31.4,29.67,NNW,338,11.4,11.4,67,0.00,,,0.00,WUHU216HW,2013-04-11 07:07:00,
2013-04-11 01:09:00,41.6,31.4,29.66,NNW,338,9.8,13.0,67,0.00,,,0.00,WUHU216HW,2013-04-11 07:09:00,
2013-04-11 01:10:00,41.6,31.4,29.66,NW,315,9.2,13.0,67,0.00,,,0.00,WUHU216HW,2013-04-11 07:10:00,
2013-04-11 01:11:00,41.6,31.4,29.66,NW,315,6.9,13.0,67,0.00,,,0.00,WUHU216HW,2013-04-11 07:11:00,
2013-04-11 01:12:00,41.4,31.2,29.66,NNW,338,10.5,13.0,67,0.00,,,0.00,WUHU216HW,2013-04-11 07:12:00,
2013-04-11 01:15:00,41.4,31.2,29.66,NW,315,7.6,13.0,67,0.00,,,0.00,WUHU216HW,2013-04-11 07:15:00,
2013-04-11 01:17:00,41.0,30.9,29.66,NW,315,10.3,13.0,67,0.00,,,0.00,WUHU216HW,2013-04-11 07:17:00,
2013-04-11 01:20:00,41.0,30.9,29.66,NW,315,9.2,12.8,67,0.00,,,0.00,WUHU216HW,2013-04-11 07:20:00,
2013-04-11 01:22:00,41.0,30.9,29.66,NW,315,8.9,12.8,67,0.00,,,0.00,WUHU216HW,2013-04-11 07:22:00,
2013-04-11 01:23:00,41.0,30.9,29.66,NW,315,10.1,12.8,67,0.00,,,0.00,WUHU216HW,2013-04-11 07:23:00,
2013-04-11 01:25:00,41.0,30.5,29.66,NW,315,12.3,12.3,66,0.00,,,0.00,WUHU216HW,2013-04-11 07:25:00,
2013-04-11 01:27:00,41.2,30.7,29.66,NW,315,9.8,12.3,66,0.00,,,0.00,WUHU216HW,2013-04-11 07:27:00,
2013-04-11 01:28:00,41.2,30.7,29.66,NW,315,15.9,15.9,66,0.00,,,0.00,WUHU216HW,2013-04-11 07:28:00,
2013-04-11 01:30:00,41.4,30.5,29.66,WNW,293,19.7,19.7,65,0.00,,,0.00,WUHU216HW,2013-04-11 07:30:00,
2013-04-11 01:32:00,41.8,30.4,29.66,NW,315,7.6,19.7,64,0.00,,,0.00,WUHU216HW,2013-04-11 07:32:00,
2013-04-11 01:33:00,41.8,30.1,29.66,WNW,293,17.0,19.7,63,0.00,,,0.00,WUHU216HW,2013-04-11 07:33:00,
2013-04-11 01:35:00,42.1,30.0,29.66,NW,315,21.3,25.1,62,0.00,,,0.00,WUHU216HW,2013-04-11 07:35:00,
2013-04-11 01:37:00,42.3,30.2,29.66,WNW,293,21.5,25.1,62,0.00,,,0.00,WUHU216HW,2013-04-11 07:37:00,
2013-04-11 01:38:00,42.5,30.0,29.66,NW,315,20.8,25.1,61,0.00,,,0.00,WUHU216HW,2013-04-11 07:38:00,
2013-04-11 01:40:00,42.3,30.2,29.66,NW,315,14.3,25.1,62,0.00,,,0.00,WUHU216HW,2013-04-11 07:40:00,
2013-04-11 01:42:00,42.3,30.2,29.66,WNW,293,19.2,25.1,62,0.00,,,0.00,WUHU216HW,2013-04-11 07:42:00,
2013-04-11 01:43:00,42.3,30.2,29.66,WNW,293,20.4,25.1,62,0.00,,,0.00,WUHU216HW,2013-04-11 07:43:00,
2013-04-11 01:44:00,42.3,30.2,29.66,WNW,293,25.3,25.3,62,0.00,,,0.00,WUHU216HW,2013-04-11 07:44:00,
2013-04-11 01:45:00,42.5,30.0,29.66,WNW,293,20.4,25.3,61,0.00,,,0.00,WUHU216HW,2013-04-11 07:45:00,
2013-04-11 01:48:00,42.5,30.0,29.66,NW,315,16.3,25.3,61,0.00,,,0.00,WUHU216HW,2013-04-11 07:48:00,
2013-04-11 01:49:00,42.3,30.2,29.66,NW,315,15.7,25.3,62,0.00,,,0.00,WUHU216HW,2013-04-11 07:49:00,
2013-04-11 01:50:00,42.3,30.2,29.66,NW,315,17.0,25.3,62,0.00,,,0.00,WUHU216HW,2013-04-11 07:50:00,
2013-04-11 01:53:00,42.1,30.0,29.66,NW,315,15.2,25.3,62,0.00,,,0.00,WUHU216HW,2013-04-11 07:53:00,
2013-04-11 01:55:00,42.1,30.0,29.66,NW,315,9.8,20.4,62,0.00,,,0.00,WUHU216HW,2013-04-11 07:55:00,
2013-04-11 01:58:00,42.1,30.4,29.66,WNW,293,16.6,20.1,63,0.00,,,0.00,WUHU216HW,2013-04-11 07:58:00,
2013-04-11 02:00:00,41.9,29.9,29.65,WNW,293,25.5,25.5,62,0.00,,,0.00,WUHU216HW,2013-04-11 08:00:00,
2013-04-11 02:03:00,42.1,29.6,29.65,WNW,293,20.1,25.5,61,0.00,,,0.00,WUHU216HW,2013-04-11 08:03:00,
2013-04-11 02:04:00,42.3,29.8,29.65,NW,315,17.9,25.5,61,0.00,,,0.00,WUHU216HW,2013-04-11 08:04:00,
2013-04-11 02:05:00,42.3,29.8,29.66,NW,315,18.1,25.5,61,0.00,,,0.00,WUHU216HW,2013-04-11 08:05:00,
2013-04-11 02:08:00,42.5,30.0,29.66,NW,315,18.3,25.5,61,0.00,,,0.00,WUHU216HW,2013-04-11 08:08:00,
2013-04-11 02:09:00,42.3,29.8,29.66,NW,315,15.9,25.5,61,0.00,,,0.00,WUHU216HW,2013-04-11 08:09:00,
2013-04-11 02:10:00,42.3,29.8,29.66,NW,315,10.7,24.8,61,0.00,,,0.00,WUHU216HW,2013-04-11 08:10:00,
2013-04-11 02:13:00,42.3,29.8,29.66,NW,315,22.6,22.6,61,0.00,,,0.00,WUHU216HW,2013-04-11 08:13:00,
2013-04-11 02:14:00,42.5,30.0,29.66,NW,315,17.2,22.6,61,0.00,,,0.00,WUHU216HW,2013-04-11 08:14:00,
2013-04-11 02:15:00,42.5,30.0,29.66,NNW,338,14.1,22.6,61,0.00,,,0.00,WUHU216HW,2013-04-11 08:15:00,
2013-04-11 02:19:00,42.5,30.0,29.67,NW,315,15.0,22.6,61,0.00,,,0.00,WUHU216HW,2013-04-11 08:19:00,
2013-04-11 02:20:00,42.5,30.0,29.66,WNW,293,13.4,22.6,61,0.00,,,0.00,WUHU216HW,2013-04-11 08:20:00,
2013-04-11 02:24:00,42.1,30.0,29.66,NW,315,13.6,19.7,62,0.00,,,0.00,WUHU216HW,2013-04-11 08:24:00,
2013-04-11 02:25:00,42.1,29.6,29.66,NW,315,17.2,19.5,61,0.00,,,0.00,WUHU216HW,2013-04-11 08:25:00,
2013-04-11 02:29:00,42.5,29.5,29.66,NW,315,20.8,23.0,60,0.00,,,0.00,WUHU216HW,2013-04-11 08:29:00,
2013-04-11 02:30:00,42.7,29.7,29.66,WNW,293,19.7,23.0,60,0.00,,,0.00,WUHU216HW,2013-04-11 08:30:00,
2013-04-11 02:34:00,42.7,29.7,29.66,WNW,293,13.0,23.0,60,0.00,,,0.00,WUHU216HW,2013-04-11 08:34:00,
2013-04-11 02:35:00,42.7,30.2,29.66,NW,315,12.1,23.0,61,0.00,,,0.00,WUHU216HW,2013-04-11 08:35:00,
2013-04-11 02:36:00,42.5,30.0,29.66,West,270,13.4,23.0,61,0.00,,,0.00,WUHU216HW,2013-04-11 08:36:00,
2013-04-11 02:39:00,42.3,30.2,29.66,NNW,338,12.8,20.6,62,0.00,,,0.00,WUHU216HW,2013-04-11 08:39:00,
2013-04-11 02:40:00,42.1,30.0,29.66,NW,315,13.2,19.0,62,0.00,,,0.00,WUHU216HW,2013-04-11 08:40:00,
2013-04-11 02:41:00,42.1,30.0,29.66,NW,315,13.2,18.8,62,0.00,,,0.00,WUHU216HW,2013-04-11 08:41:00,
2013-04-11 02:45:00,41.9,29.9,29.66,NW,315,12.8,18.8,62,0.00,,,0.00,WUHU216HW,2013-04-11 08:45:00,
2013-04-11 02:46:00,41.8,29.7,29.66,NW,315,19.0,19.0,62,0.00,,,0.00,WUHU216HW,2013-04-11 08:46:00,
2013-04-11 02:50:00,41.8,29.7,29.66,NW,315,19.5,19.5,62,0.00,,,0.00,WUHU216HW,2013-04-11 08:50:00,
2013-04-11 02:51:00,41.9,29.9,29.66,NW,315,17.2,19.5,62,0.00,,,0.00,WUHU216HW,2013-04-11 08:51:00,
2013-04-11 02:52:00,41.9,29.9,29.66,NW,315,17.2,19.5,62,0.00,,,0.00,WUHU216HW,2013-04-11 08:52:00,
2013-04-11 02:55:00,42.5,29.5,29.66,WNW,293,25.1,25.1,60,0.00,,,0.00,WUHU216HW,2013-04-11 08:55:00,
2013-04-11 02:56:00,42.7,29.7,29.66,NW,315,22.8,25.9,60,0.00,,,0.00,WUHU216HW,2013-04-11 08:56:00,
2013-04-11 02:57:00,42.7,29.7,29.66,NNW,338,19.7,25.9,60,0.00,,,0.00,WUHU216HW,2013-04-11 08:57:00,
2013-04-11 03:00:00,42.7,29.7,29.66,NNW,338,20.4,25.9,60,0.00,,,0.00,WUHU216HW,2013-04-11 09:00:00,
2013-04-11 03:01:00,42.5,29.2,29.66,NW,315,22.6,25.9,59,0.00,,,0.00,WUHU216HW,2013-04-11 09:01:00,
2013-04-11 03:02:00,42.7,29.7,29.66,NNW,338,24.6,25.9,60,0.00,,,0.00,WUHU216HW,2013-04-11 09:02:00,
2013-04-11 03:05:00,42.7,29.7,29.66,NW,315,18.3,25.9,60,0.00,,,0.00,WUHU216HW,2013-04-11 09:05:00,
2013-04-11 03:06:00,42.7,29.7,29.66,NW,315,18.1,25.1,60,0.00,,,0.00,WUHU216HW,2013-04-11 09:06:00,
2013-04-11 03:07:00,42.7,29.7,29.66,NW,315,18.1,25.1,60,0.00,,,0.00,WUHU216HW,2013-04-11 09:07:00,
2013-04-11 03:10:00,42.3,29.8,29.66,NNW,338,18.3,25.1,61,0.00,,,0.00,WUHU216HW,2013-04-11 09:10:00,
2013-04-11 03:12:00,42.3,29.8,29.67,NW,315,17.7,25.1,61,0.00,,,0.00,WUHU216HW,2013-04-11 09:12:00,
2013-04-11 03:15:00,42.5,30.0,29.66,NW,315,13.9,19.7,61,0.00,,,0.00,WUHU216HW,2013-04-11 09:15:00,
2013-04-11 03:17:00,42.5,30.0,29.67,NNW,338,15.0,19.2,61,0.00,,,0.00,WUHU216HW,2013-04-11 09:17:00,
2013-04-11 03:21:00,42.5,29.5,29.66,NW,315,17.0,19.2,60,0.00,,,0.00,WUHU216HW,2013-04-11 09:21:00,
2013-04-11 03:22:00,42.7,29.7,29.67,WNW,293,15.7,19.2,60,0.00,,,0.00,WUHU216HW,2013-04-11 09:22:00,
2013-04-11 03:23:00,42.7,29.7,29.67,NNW,338,13.2,19.2,60,0.00,,,0.00,WUHU216HW,2013-04-11 09:23:00,
2013-04-11 03:27:00,42.7,30.2,29.67,NW,315,9.2,18.6,61,0.00,,,0.00,WUHU216HW,2013-04-11 09:27:00,
2013-04-11 03:28:00,42.5,30.0,29.68,NW,315,9.2,18.6,61,0.00,,,0.00,WUHU216HW,2013-04-11 09:28:00,
2013-04-11 03:32:00,42.5,30.3,29.68,NNW,338,9.8,14.8,62,0.00,,,0.00,WUHU216HW,2013-04-11 09:32:00,
2013-04-11 03:33:00,42.5,30.3,29.68,NW,315,10.7,13.2,62,0.00,,,0.00,WUHU216HW,2013-04-11 09:33:00,
2013-04-11 03:37:00,42.5,29.5,29.69,NNW,338,15.0,19.7,60,0.00,,,0.00,WUHU216HW,2013-04-11 09:37:00,
2013-04-11 03:38:00,42.7,30.2,29.69,NNW,338,17.2,19.7,61,0.00,,,0.00,WUHU216HW,2013-04-11 09:38:00,
2013-04-11 03:42:00,42.8,30.2,29.69,NW,315,11.6,19.7,61,0.00,,,0.00,WUHU216HW,2013-04-11 09:42:00,
2013-04-11 03:43:00,42.8,30.2,29.69,NW,315,11.2,19.7,61,0.00,,,0.00,WUHU216HW,2013-04-11 09:43:00,
2013-04-11 03:47:00,42.8,30.2,29.69,NW,315,12.3,17.9,61,0.00,,,0.00,WUHU216HW,2013-04-11 09:47:00,
2013-04-11 03:48:00,42.8,30.2,29.69,NW,315,14.1,17.9,61,0.00,,,0.00,WUHU216HW,2013-04-11 09:48:00,
2013-04-11 03:52:00,42.7,30.5,29.69,NNW,338,7.6,17.9,62,0.00,,,0.00,WUHU216HW,2013-04-11 09:52:00,
2013-04-11 03:53:00,42.7,30.9,29.69,NNW,338,8.3,17.9,63,0.00,,,0.00,WUHU216HW,2013-04-11 09:53:00,
2013-04-11 03:57:00,42.5,31.2,29.69,NNW,338,9.4,14.1,64,0.00,,,0.00,WUHU216HW,2013-04-11 09:57:00,
2013-04-11 03:58:00,42.3,31.0,29.69,NW,315,9.8,12.8,64,0.00,,,0.00,WUHU216HW,2013-04-11 09:58:00,
2013-04-11 04:02:00,42.3,30.6,29.69,NNW,338,8.5,12.8,63,0.00,,,0.00,WUHU216HW,2013-04-11 10:02:00,
2013-04-11 04:03:00,42.3,30.6,29.69,NW,315,9.6,12.8,63,0.00,,,0.00,WUHU216HW,2013-04-11 10:03:00,
2013-04-11 04:08:00,42.3,31.0,29.69,NW,315,11.0,12.8,64,0.00,,,0.00,WUHU216HW,2013-04-11 10:08:00,
2013-04-11 04:13:00,42.1,31.1,29.70,NNW,338,15.9,15.9,65,0.00,,,0.00,WUHU216HW,2013-04-11 10:13:00,
2013-04-11 04:14:00,42.1,31.1,29.70,North,0,14.3,18.3,65,0.00,,,0.00,WUHU216HW,2013-04-11 10:14:00,
2013-04-11 04:18:00,41.9,31.0,29.70,NW,315,16.3,18.3,65,0.00,,,0.00,WUHU216HW,2013-04-11 10:18:00,
2013-04-11 04:19:00,41.9,30.6,29.70,NW,315,13.2,19.5,64,0.00,,,0.00,WUHU216HW,2013-04-11 10:19:00,
2013-04-11 04:23:00,42.1,30.8,29.70,NW,315,15.9,20.6,64,0.00,,,0.00,WUHU216HW,2013-04-11 10:23:00,
2013-04-11 04:24:00,42.1,31.1,29.70,NNW,338,12.8,20.6,65,0.00,,,0.00,WUHU216HW,2013-04-11 10:24:00,
2013-04-11 04:28:00,41.9,31.0,29.70,NNW,338,7.8,20.6,65,0.00,,,0.00,WUHU216HW,2013-04-11 10:28:00,
2013-04-11 04:29:00,41.9,31.0,29.70,NNW,338,10.5,20.6,65,0.00,,,0.00,WUHU216HW,2013-04-11 10:29:00,
2013-04-11 04:33:00,41.8,30.9,29.71,NNW,338,13.6,15.2,65,0.00,,,0.00,WUHU216HW,2013-04-11 10:33:00,
2013-04-11 04:34:00,41.8,31.2,29.71,NW,315,9.2,15.2,66,0.00,,,0.00,WUHU216HW,2013-04-11 10:34:00,
2013-04-11 04:38:00,41.6,30.7,29.70,NW,315,15.7,17.7,65,0.00,,,0.00,WUHU216HW,2013-04-11 10:38:00,
2013-04-11 04:39:00,41.6,30.7,29.70,NW,315,17.2,17.7,65,0.00,,,0.00,WUHU216HW,2013-04-11 10:39:00,
2013-04-11 04:43:00,41.4,30.5,29.71,NW,315,12.8,17.7,65,0.00,,,0.00,WUHU216HW,2013-04-11 10:43:00,
2013-04-11 04:44:00,41.6,30.7,29.71,WNW,293,11.4,17.7,65,0.00,,,0.00,WUHU216HW,2013-04-11 10:44:00,
2013-04-11 04:45:00,41.4,30.5,29.71,NW,315,10.5,17.7,65,0.00,,,0.00,WUHU216HW,2013-04-11 10:45:00,
2013-04-11 04:48:00,41.4,30.5,29.71,NW,315,10.5,17.2,65,0.00,,,0.00,WUHU216HW,2013-04-11 10:48:00,
2013-04-11 04:49:00,41.4,30.5,29.71,NW,315,14.1,17.2,65,0.00,,,0.00,WUHU216HW,2013-04-11 10:49:00,
2013-04-11 04:50:00,41.4,30.5,29.71,NNW,338,11.6,15.2,65,0.00,,,0.00,WUHU216HW,2013-04-11 10:50:00,
2013-04-11 04:53:00,41.4,30.2,29.71,NNW,338,11.0,14.3,64,0.00,,,0.00,WUHU216HW,2013-04-11 10:53:00,
2013-04-11 04:54:00,41.4,30.5,29.71,NW,315,10.7,14.3,65,0.00,,,0.00,WUHU216HW,2013-04-11 10:54:00,
2013-04-11 04:55:00,41.4,30.2,29.71,WNW,293,13.9,14.3,64,0.00,,,0.00,WUHU216HW,2013-04-11 10:55:00,
2013-04-11 04:59:00,41.4,29.7,29.70,NW,315,15.0,15.7,63,0.00,,,0.00,WUHU216HW,2013-04-11 10:59:00,
2013-04-11 05:01:00,41.4,29.7,29.71,NW,315,17.9,17.9,63,0.00,,,0.00,WUHU216HW,2013-04-11 11:01:00,
2013-04-11 05:04:00,41.4,29.7,29.71,NW,315,15.0,17.9,63,0.00,,,0.00,WUHU216HW,2013-04-11 11:04:00,
2013-04-11 05:06:00,41.4,29.3,29.70,WNW,293,17.4,18.6,62,0.00,,,0.00,WUHU216HW,2013-04-11 11:06:00,
2013-04-11 05:09:00,41.4,29.3,29.71,NW,315,19.5,19.5,62,0.00,,,0.00,WUHU216HW,2013-04-11 11:09:00,
2013-04-11 05:11:00,41.6,29.5,29.71,NW,315,19.9,19.9,62,0.00,,,0.00,WUHU216HW,2013-04-11 11:11:00,
2013-04-11 05:14:00,41.4,29.3,29.71,NW,315,15.9,22.8,62,0.00,,,0.00,WUHU216HW,2013-04-11 11:14:00,
2013-04-11 05:15:00,41.4,29.3,29.71,WNW,293,13.4,22.8,62,0.00,,,0.00,WUHU216HW,2013-04-11 11:15:00,
2013-04-11 05:16:00,41.4,29.3,29.71,NW,315,17.4,22.8,62,0.00,,,0.00,WUHU216HW,2013-04-11 11:16:00,
2013-04-11 05:19:00,41.4,29.0,29.71,NW,315,16.3,22.8,61,0.00,,,0.00,WUHU216HW,2013-04-11 11:19:00,
2013-04-11 05:20:00,41.4,29.0,29.71,NW,315,19.2,22.8,61,0.00,,,0.00,WUHU216HW,2013-04-11 11:20:00,
2013-04-11 05:21:00,41.4,29.0,29.71,NW,315,17.9,22.8,61,0.00,,,0.00,WUHU216HW,2013-04-11 11:21:00,
2013-04-11 05:24:00,41.4,29.3,29.71,NW,315,12.3,19.2,62,0.00,,,0.00,WUHU216HW,2013-04-11 11:24:00,
2013-04-11 05:25:00,41.4,29.3,29.71,WNW,293,11.0,19.2,62,0.00,,,0.00,WUHU216HW,2013-04-11 11:25:00,
2013-04-11 05:26:00,41.2,29.2,29.71,WNW,293,12.1,19.2,62,0.00,,,0.00,WUHU216HW,2013-04-11 11:26:00,
2013-04-11 05:29:00,41.0,29.4,29.71,NW,315,16.1,19.2,63,0.00,,,0.00,WUHU216HW,2013-04-11 11:29:00,
2013-04-11 05:30:00,41.0,29.0,29.71,NW,315,14.3,17.9,62,0.00,,,0.00,WUHU216HW,2013-04-11 11:30:00,
2013-04-11 05:32:00,41.0,29.4,29.71,NW,315,15.7,16.1,63,0.00,,,0.00,WUHU216HW,2013-04-11 11:32:00,
2013-04-11 05:34:00,40.9,29.3,29.71,NNW,338,15.0,17.2,63,0.00,,,0.00,WUHU216HW,2013-04-11 11:34:00,
2013-04-11 05:35:00,40.9,29.3,29.71,NNW,338,15.0,17.2,63,0.00,,,0.00,WUHU216HW,2013-04-11 11:35:00,
2013-04-11 05:36:00,40.9,29.3,29.71,NW,315,14.1,17.2,63,0.00,,,0.00,WUHU216HW,2013-04-11 11:36:00,
2013-04-11 05:37:00,40.9,28.8,29.71,NW,315,13.9,17.2,62,0.00,,,0.00,WUHU216HW,2013-04-11 11:37:00,
2013-04-11 05:40:00,40.7,28.6,29.71,NW,315,18.8,18.8,62,0.00,,,0.00,WUHU216HW,2013-04-11 11:40:00,
2013-04-11 05:42:00,40.9,28.8,29.71,NW,315,14.3,18.8,62,0.00,,,0.00,WUHU216HW,2013-04-11 11:42:00,
2013-04-11 05:45:00,40.7,28.6,29.71,NW,315,10.5,18.8,62,0.00,,,0.00,WUHU216HW,2013-04-11 11:45:00,
2013-04-11 05:47:00,40.5,28.4,29.71,NW,315,17.2,18.8,62,0.00,,,0.00,WUHU216HW,2013-04-11 11:47:00,
2013-04-11 05:50:00,40.5,28.9,29.71,NNW,338,14.3,17.2,63,0.00,,,0.00,WUHU216HW,2013-04-11 11:50:00,
2013-04-11 05:52:00,40.5,28.9,29.71,NW,315,15.7,17.2,63,0.00,,,0.00,WUHU216HW,2013-04-11 11:52:00,
2013-04-11 05:55:00,40.5,28.4,29.71,NNW,338,13.0,18.3,62,0.00,,,0.00,WUHU216HW,2013-04-11 11:55:00,
2013-04-11 05:57:00,40.3,28.3,29.71,NW,315,9.8,18.3,62,0.00,,,0.00,WUHU216HW,2013-04-11 11:57:00,
2013-04-11 05:58:00,40.3,28.3,29.71,NW,315,11.2,18.3,62,0.00,,,0.00,WUHU216HW,2013-04-11 11:58:00,
2013-04-11 06:00:00,40.3,28.3,29.71,NW,315,13.4,18.3,62,0.00,,,0.00,WUHU216HW,2013-04-11 12:00:00,
2013-04-11 06:03:00,40.3,28.3,29.71,NW,315,12.5,18.3,62,0.00,,,0.00,WUHU216HW,2013-04-11 12:03:00,
2013-04-11 06:05:00,40.3,28.3,29.71,NW,315,14.3,17.2,62,0.00,,,0.00,WUHU216HW,2013-04-11 12:05:00,
2013-04-11 06:08:00,40.3,28.3,29.71,NW,315,17.0,17.0,62,0.00,,,0.00,WUHU216HW,2013-04-11 12:08:00,
2013-04-11 06:10:00,40.1,28.1,29.72,NW,315,13.0,17.0,62,0.00,,,0.00,WUHU216HW,2013-04-11 12:10:00,
2013-04-11 06:13:00,40.1,28.1,29.72,WNW,293,10.3,17.0,62,0.00,,,0.00,WUHU216HW,2013-04-11 12:13:00,
2013-04-11 06:15:00,40.1,28.1,29.71,NW,315,13.4,17.0,62,0.00,,,0.00,WUHU216HW,2013-04-11 12:15:00,
2013-04-11 06:18:00,40.1,28.1,29.72,NW,315,12.3,17.0,62,0.00,,,0.00,WUHU216HW,2013-04-11 12:18:00,
2013-04-11 06:20:00,40.1,28.1,29.72,NNW,338,9.8,18.6,62,0.00,,,0.00,WUHU216HW,2013-04-11 12:20:00,
2013-04-11 06:21:00,40.1,28.1,29.72,NNW,338,9.8,18.6,62,0.00,,,0.00,WUHU216HW,2013-04-11 12:21:00,
2013-04-11 06:23:00,40.1,27.7,29.71,NNW,338,15.7,19.0,61,0.00,,,0.00,WUHU216HW,2013-04-11 12:23:00,
2013-04-11 06:25:00,40.1,27.7,29.71,NNW,338,14.3,19.0,61,0.00,,,0.00,WUHU216HW,2013-04-11 12:25:00,
2013-04-11 06:26:00,40.1,27.7,29.71,NW,315,16.3,19.0,61,0.00,,,0.00,WUHU216HW,2013-04-11 12:26:00,
2013-04-11 06:28:00,40.1,27.7,29.71,WNW,293,17.0,19.0,61,0.00,,,0.00,WUHU216HW,2013-04-11 12:28:00,
2013-04-11 06:31:00,40.1,27.4,29.72,NW,315,13.4,19.0,60,0.00,,,0.00,WUHU216HW,2013-04-11 12:31:00,
2013-04-11 06:32:00,40.3,27.5,29.72,WNW,293,13.4,19.0,60,0.00,,,0.00,WUHU216HW,2013-04-11 12:32:00,
2013-04-11 06:33:00,40.3,27.5,29.72,WNW,293,14.8,20.8,60,0.00,,,0.00,WUHU216HW,2013-04-11 12:33:00,
2013-04-11 06:36:00,40.3,27.5,29.72,WNW,293,13.4,22.1,60,0.00,,,0.00,WUHU216HW,2013-04-11 12:36:00,
2013-04-11 06:37:00,40.1,27.4,29.72,West,270,11.4,22.1,60,0.00,,,0.00,WUHU216HW,2013-04-11 12:37:00,
2013-04-11 06:38:00,40.3,27.5,29.72,WNW,293,17.0,22.1,60,0.00,,,0.00,WUHU216HW,2013-04-11 12:38:00,
2013-04-11 06:39:00,40.3,27.5,29.72,WNW,293,16.1,22.1,60,0.00,,,0.00,WUHU216HW,2013-04-11 12:39:00,
2013-04-11 06:42:00,40.3,27.1,29.72,West,270,19.2,22.1,59,0.00,,,0.00,WUHU216HW,2013-04-11 12:42:00,
2013-04-11 06:43:00,40.5,27.3,29.72,WNW,293,18.1,22.1,59,0.00,,,0.00,WUHU216HW,2013-04-11 12:43:00,
2013-04-11 06:44:00,40.5,26.8,29.72,WNW,293,18.1,22.1,58,0.00,,,0.00,WUHU216HW,2013-04-11 12:44:00,
2013-04-11 06:47:00,40.7,27.0,29.72,West,270,15.7,19.9,58,0.00,,,0.00,WUHU216HW,2013-04-11 12:47:00,
2013-04-11 06:48:00,40.7,27.0,29.72,NW,315,19.2,19.9,58,0.00,,,0.00,WUHU216HW,2013-04-11 12:48:00,
2013-04-11 06:49:00,40.7,27.0,29.72,NW,315,14.5,19.9,58,0.00,,,0.00,WUHU216HW,2013-04-11 12:49:00,
2013-04-11 06:52:00,40.7,27.0,29.72,WNW,293,14.8,19.9,58,0.00,,,0.00,WUHU216HW,2013-04-11 12:52:00,
2013-04-11 06:53:00,40.7,27.0,29.72,NW,315,16.8,19.9,58,0.00,,,0.00,WUHU216HW,2013-04-11 12:53:00,
2013-04-11 06:54:00,40.7,27.5,29.72,WNW,293,12.3,19.9,59,0.00,,,0.00,WUHU216HW,2013-04-11 12:54:00,
2013-04-11 06:58:00,40.7,27.5,29.72,West,270,17.2,19.2,59,0.00,,,0.00,WUHU216HW,2013-04-11 12:58:00,
2013-04-11 06:59:00,40.7,27.5,29.73,WNW,293,17.9,19.2,59,0.00,,,0.00,WUHU216HW,2013-04-11 12:59:00,
2013-04-11 07:03:00,40.7,27.5,29.73,NW,315,16.8,19.2,59,0.00,,,0.00,WUHU216HW,2013-04-11 13:03:00,
2013-04-11 07:04:00,40.7,27.5,29.73,WNW,293,12.8,19.2,59,0.00,,,0.00,WUHU216HW,2013-04-11 13:04:00,
2013-04-11 07:08:00,40.7,27.5,29.73,WNW,293,11.9,22.6,59,0.00,,,0.00,WUHU216HW,2013-04-11 13:08:00,
2013-04-11 07:09:00,40.7,27.0,29.73,NW,315,17.9,22.6,58,0.00,,,0.00,WUHU216HW,2013-04-11 13:09:00,
2013-04-11 07:10:00,40.9,27.6,29.73,WNW,293,11.4,22.6,59,0.00,,,0.00,WUHU216HW,2013-04-11 13:10:00,
2013-04-11 07:13:00,40.7,27.0,29.73,West,270,14.3,22.6,58,0.00,,,0.00,WUHU216HW,2013-04-11 13:13:00,
2013-04-11 07:14:00,40.7,27.5,29.73,NW,315,12.8,22.6,59,0.00,,,0.00,WUHU216HW,2013-04-11 13:14:00,
2013-04-11 07:15:00,40.7,27.5,29.73,WNW,293,15.2,22.6,59,0.00,,,0.00,WUHU216HW,2013-04-11 13:15:00,
2013-04-11 07:18:00,40.9,27.2,29.73,West,270,15.7,19.5,58,0.00,,,0.00,WUHU216HW,2013-04-11 13:18:00,
2013-04-11 07:20:00,40.9,27.2,29.73,WNW,293,19.5,19.5,58,0.00,,,0.00,WUHU216HW,2013-04-11 13:20:00,
2013-04-11 07:21:00,41.0,27.4,29.73,NW,315,15.9,19.5,58,0.00,,,0.00,WUHU216HW,2013-04-11 13:21:00,
2013-04-11 07:23:00,41.0,27.4,29.73,WNW,293,18.1,23.0,58,0.00,,,0.00,WUHU216HW,2013-04-11 13:23:00,
2013-04-11 07:25:00,41.0,27.4,29.73,WNW,293,15.4,23.0,58,0.00,,,0.00,WUHU216HW,2013-04-11 13:25:00,
2013-04-11 07:26:00,41.0,26.9,29.73,West,270,14.1,23.0,57,0.00,,,0.00,WUHU216HW,2013-04-11 13:26:00,
2013-04-11 07:28:00,41.0,26.5,29.73,NW,315,16.3,23.0,56,0.00,,,0.00,WUHU216HW,2013-04-11 13:28:00,
2013-04-11 07:30:00,41.2,27.1,29.74,West,270,16.6,23.0,57,0.00,,,0.00,WUHU216HW,2013-04-11 13:30:00,
2013-04-11 07:31:00,41.2,27.1,29.74,WNW,293,16.6,23.0,57,0.00,,,0.00,WUHU216HW,2013-04-11 13:31:00,
2013-04-11 07:33:00,41.2,26.7,29.74,WNW,293,20.1,22.1,56,0.00,,,0.00,WUHU216HW,2013-04-11 13:33:00,
2013-04-11 07:34:00,41.4,27.3,29.73,WNW,293,17.9,22.1,57,0.00,,,0.00,WUHU216HW,2013-04-11 13:34:00,
2013-04-11 07:35:00,41.2,27.1,29.73,WNW,293,16.8,22.1,57,0.00,,,0.00,WUHU216HW,2013-04-11 13:35:00,
2013-04-11 07:36:00,41.4,26.8,29.73,WNW,293,18.6,22.1,56,0.00,,,0.00,WUHU216HW,2013-04-11 13:36:00,
2013-04-11 07:39:00,41.4,26.8,29.73,NW,315,16.8,20.1,56,0.00,,,0.00,WUHU216HW,2013-04-11 13:39:00,
2013-04-11 07:40:00,41.4,26.4,29.74,WNW,293,14.3,20.1,55,0.00,,,0.00,WUHU216HW,2013-04-11 13:40:00,
2013-04-11 07:41:00,41.4,26.8,29.74,WNW,293,13.6,20.1,56,0.00,,,0.00,WUHU216HW,2013-04-11 13:41:00,
2013-04-11 07:44:00,41.4,26.4,29.73,WNW,293,14.8,23.7,55,0.00,,,0.00,WUHU216HW,2013-04-11 13:44:00,
2013-04-11 07:45:00,41.4,25.9,29.73,WNW,293,19.2,23.7,54,0.00,,,0.00,WUHU216HW,2013-04-11 13:45:00,
2013-04-11 07:47:00,41.6,26.1,29.73,NW,315,21.5,23.7,54,0.00,,,0.00,WUHU216HW,2013-04-11 13:47:00,
2013-04-11 07:49:00,41.6,26.6,29.73,WSW,248,20.8,23.7,55,0.00,,,0.00,WUHU216HW,2013-04-11 13:49:00,
2013-04-11 07:50:00,41.6,26.1,29.73,West,270,16.3,24.8,54,0.00,,,0.00,WUHU216HW,2013-04-11 13:50:00,
2013-04-11 07:52:00,41.6,26.6,29.74,West,270,17.0,24.8,55,0.00,,,0.00,WUHU216HW,2013-04-11 13:52:00,
2013-04-11 07:55:00,41.8,26.3,29.74,WNW,293,15.7,24.8,54,0.00,,,0.00,WUHU216HW,2013-04-11 13:55:00,
2013-04-11 07:56:00,41.8,26.3,29.74,WNW,293,16.3,24.8,54,0.00,,,0.00,WUHU216HW,2013-04-11 13:56:00,
2013-04-11 07:57:00,41.8,26.3,29.74,NNW,338,16.6,24.8,54,0.00,,,0.00,WUHU216HW,2013-04-11 13:57:00,
2013-04-11 07:59:00,41.4,25.9,29.74,WNW,293,13.9,24.8,54,0.00,,,0.00,WUHU216HW,2013-04-11 13:59:00,
2013-04-11 08:00:00,41.4,26.4,29.74,WNW,293,15.7,23.7,55,0.00,,,0.00,WUHU216HW,2013-04-11 14:00:00,
2013-04-11 08:01:00,41.4,26.4,29.74,WNW,293,14.3,23.7,55,0.00,,,0.00,WUHU216HW,2013-04-11 14:01:00,
2013-04-11 08:03:00,41.2,25.8,29.74,WNW,293,23.3,23.7,54,0.00,,,0.00,WUHU216HW,2013-04-11 14:03:00,
2013-04-11 08:05:00,41.2,25.8,29.74,NW,315,17.2,23.7,54,0.00,,,0.00,WUHU216HW,2013-04-11 14:05:00,
2013-04-11 08:07:00,41.2,25.8,29.74,WNW,293,16.3,23.7,54,0.00,,,0.00,WUHU216HW,2013-04-11 14:07:00,
2013-04-11 08:08:00,41.2,25.8,29.74,WNW,293,16.8,23.7,54,0.00,,,0.00,WUHU216HW,2013-04-11 14:08:00,
2013-04-11 08:10:00,41.2,25.8,29.74,WNW,293,16.1,23.3,54,0.00,,,0.00,WUHU216HW,2013-04-11 14:10:00,
2013-04-11 08:13:00,41.0,25.6,29.74,WNW,293,16.1,23.3,54,0.00,,,0.00,WUHU216HW,2013-04-11 14:13:00,
2013-04-11 08:15:00,41.2,25.8,29.74,NW,315,16.3,22.4,54,0.00,,,0.00,WUHU216HW,2013-04-11 14:15:00,
2013-04-11 08:18:00,41.2,26.2,29.74,NW,315,10.5,22.4,55,0.00,,,0.00,WUHU216HW,2013-04-11 14:18:00,
2013-04-11 08:19:00,41.2,26.7,29.74,NW,315,11.4,19.0,56,0.00,,,0.00,WUHU216HW,2013-04-11 14:19:00,
2013-04-11 08:20:00,41.4,26.8,29.74,WNW,293,12.8,19.0,56,0.00,,,0.00,WUHU216HW,2013-04-11 14:20:00,
2013-04-11 08:23:00,41.9,26.5,29.74,WNW,293,18.6,22.4,54,0.00,,,0.00,WUHU216HW,2013-04-11 14:23:00,
2013-04-11 08:24:00,42.1,26.7,29.74,NW,315,20.1,22.4,54,0.00,,,0.00,WUHU216HW,2013-04-11 14:24:00,
2013-04-11 08:25:00,42.1,27.0,29.74,NW,315,20.6,22.4,55,0.00,,,0.00,WUHU216HW,2013-04-11 14:25:00,
2013-04-11 08:26:00,42.1,26.7,29.74,NW,315,18.6,22.4,54,0.00,,,0.00,WUHU216HW,2013-04-11 14:26:00,
2013-04-11 08:28:00,42.3,27.2,29.74,NW,315,17.4,22.4,55,0.00,,,0.00,WUHU216HW,2013-04-11 14:28:00,
2013-04-11 08:29:00,42.5,26.9,29.74,WNW,293,15.0,22.4,54,0.00,,,0.00,WUHU216HW,2013-04-11 14:29:00,
2013-04-11 08:30:00,42.5,27.4,29.74,WNW,293,15.0,22.4,55,0.00,,,0.00,WUHU216HW,2013-04-11 14:30:00,
2013-04-11 08:31:00,42.5,27.4,29.74,WNW,293,11.9,22.4,55,0.00,,,0.00,WUHU216HW,2013-04-11 14:31:00,
2013-04-11 08:33:00,42.7,27.1,29.74,NW,315,17.7,20.6,54,0.00,,,0.00,WUHU216HW,2013-04-11 14:33:00,
2013-04-11 08:34:00,42.7,27.1,29.74,WNW,293,14.3,20.6,54,0.00,,,0.00,WUHU216HW,2013-04-11 14:34:00,
2013-04-11 08:35:00,42.7,27.5,29.74,WNW,293,14.3,20.6,55,0.00,,,0.00,WUHU216HW,2013-04-11 14:35:00,
2013-04-11 08:37:00,42.8,27.7,29.74,WNW,293,14.3,17.7,55,0.00,,,0.00,WUHU216HW,2013-04-11 14:37:00,
2013-04-11 08:39:00,42.8,27.7,29.74,North,0,0.0,17.7,55,0.00,,,0.00,WUHU216HW,2013-04-11 14:39:00,
2013-04-11 08:40:00,42.8,27.7,29.74,North,0,0.0,17.7,55,0.00,,,0.00,WUHU216HW,2013-04-11 14:40:00,
2013-04-11 08:42:00,42.8,27.3,29.74,North,0,0.0,17.7,54,0.00,,,0.00,WUHU216HW,2013-04-11 14:42:00,
2013-04-11 08:44:00,42.8,27.3,29.74,North,0,0.0,17.7,54,0.00,,,0.00,WUHU216HW,2013-04-11 14:44:00,
2013-04-11 08:45:00,42.8,26.8,29.74,North,0,0.0,14.3,53,0.00,,,0.00,WUHU216HW,2013-04-11 14:45:00,
2013-04-11 08:47:00,42.5,26.9,29.74,WNW,293,16.6,22.1,54,0.00,,,0.00,WUHU216HW,2013-04-11 14:47:00,
2013-04-11 08:49:00,42.3,26.4,29.74,WNW,293,18.8,22.1,53,0.00,,,0.00,WUHU216HW,2013-04-11 14:49:00,
2013-04-11 08:50:00,42.1,26.7,29.74,WNW,293,18.8,22.1,54,0.00,,,0.00,WUHU216HW,2013-04-11 14:50:00,
2013-04-11 08:51:00,42.1,26.2,29.74,WNW,293,18.3,22.1,53,0.00,,,0.00,WUHU216HW,2013-04-11 14:51:00,
2013-04-11 08:53:00,41.9,26.5,29.74,NW,315,15.7,22.1,54,0.00,,,0.00,WUHU216HW,2013-04-11 14:53:00,
2013-04-11 08:54:00,41.8,26.3,29.75,NW,315,15.7,22.1,54,0.00,,,0.00,WUHU216HW,2013-04-11 14:54:00,
2013-04-11 08:55:00,41.9,26.9,29.75,NW,315,10.1,22.1,55,0.00,,,0.00,WUHU216HW,2013-04-11 14:55:00,
2013-04-11 08:57:00,41.8,26.7,29.75,NW,315,10.1,18.8,55,0.00,,,0.00,WUHU216HW,2013-04-11 14:57:00,
2013-04-11 08:58:00,41.8,26.7,29.75,NW,315,11.6,18.8,55,0.00,,,0.00,WUHU216HW,2013-04-11 14:58:00,
2013-04-11 08:59:00,41.8,26.3,29.75,WNW,293,17.0,18.8,54,0.00,,,0.00,WUHU216HW,2013-04-11 14:59:00,
2013-04-11 09:00:00,41.8,26.7,29.75,NW,315,15.0,18.3,55,0.00,,,0.00,WUHU216HW,2013-04-11 15:00:00,
2013-04-11 09:02:00,41.9,26.9,29.75,NW,315,15.0,18.3,55,0.00,,,0.00,WUHU216HW,2013-04-11 15:02:00,
2013-04-11 09:03:00,41.9,26.9,29.75,NNW,338,12.8,17.0,55,0.00,,,0.00,WUHU216HW,2013-04-11 15:03:00,
2013-04-11 09:04:00,41.9,26.5,29.75,WNW,293,12.5,17.0,54,0.00,,,0.00,WUHU216HW,2013-04-11 15:04:00,
2013-04-11 09:06:00,42.1,27.0,29.75,NW,315,14.3,17.0,55,0.00,,,0.00,WUHU216HW,2013-04-11 15:06:00,
2013-04-11 09:07:00,42.1,26.2,29.75,West,270,16.3,17.0,53,0.00,,,0.00,WUHU216HW,2013-04-11 15:07:00,
2013-04-11 09:08:00,42.1,26.2,29.75,NW,315,13.9,17.0,53,0.00,,,0.00,WUHU216HW,2013-04-11 15:08:00,
2013-04-11 09:09:00,42.1,26.2,29.75,NW,315,16.3,16.8,53,0.00,,,0.00,WUHU216HW,2013-04-11 15:09:00,
2013-04-11 09:11:00,42.5,26.6,29.75,WNW,293,17.9,17.9,53,0.00,,,0.00,WUHU216HW,2013-04-11 15:11:00,
2013-04-11 09:12:00,42.5,26.6,29.75,West,270,14.3,17.9,53,0.00,,,0.00,WUHU216HW,2013-04-11 15:12:00,
2013-04-11 09:13:00,42.7,26.6,29.75,NW,315,14.5,17.9,53,0.00,,,0.00,WUHU216HW,2013-04-11 15:13:00,
2013-04-11 09:14:00,42.7,26.6,29.75,WNW,293,15.0,18.6,53,0.00,,,0.00,WUHU216HW,2013-04-11 15:14:00,
2013-04-11 09:16:00,42.8,26.8,29.75,NW,315,10.1,18.6,53,0.00,,,0.00,WUHU216HW,2013-04-11 15:16:00,
2013-04-11 09:17:00,42.8,26.8,29.75,West,270,13.4,18.6,53,0.00,,,0.00,WUHU216HW,2013-04-11 15:17:00,
2013-04-11 09:18:00,42.8,26.8,29.75,West,270,13.4,18.6,53,0.00,,,0.00,WUHU216HW,2013-04-11 15:18:00,
2013-04-11 09:20:00,43.0,27.0,29.75,West,270,13.4,18.6,53,0.00,,,0.00,WUHU216HW,2013-04-11 15:20:00,
2013-04-11 09:22:00,43.2,27.2,29.75,West,270,13.4,18.6,53,0.00,,,0.00,WUHU216HW,2013-04-11 15:22:00,
2013-04-11 09:23:00,43.2,27.2,29.75,North,0,0.0,18.6,53,0.00,,,0.00,WUHU216HW,2013-04-11 15:23:00,
2013-04-11 09:25:00,43.2,27.2,29.75,North,0,0.0,13.4,53,0.00,,,0.00,WUHU216HW,2013-04-11 15:25:00,
2013-04-11 09:27:00,43.6,27.1,29.75,North,0,0.0,13.4,52,0.00,,,0.00,WUHU216HW,2013-04-11 15:27:00,
2013-04-11 09:28:00,43.7,26.8,29.75,North,0,0.0,13.4,51,0.00,,,0.00,WUHU216HW,2013-04-11 15:28:00,
2013-04-11 09:30:00,43.9,27.5,29.75,North,0,0.0,13.4,52,0.00,,,0.00,WUHU216HW,2013-04-11 15:30:00,
2013-04-11 09:32:00,44.1,27.5,29.75,North,0,0.0,0.0,52,0.00,,,0.00,WUHU216HW,2013-04-11 15:32:00,
2013-04-11 09:33:00,44.1,27.5,29.75,North,0,0.0,0.0,52,0.00,,,0.00,WUHU216HW,2013-04-11 15:33:00,
2013-04-11 09:34:00,44.3,27.3,29.75,North,0,0.0,0.0,51,0.00,,,0.00,WUHU216HW,2013-04-11 15:34:00,
2013-04-11 09:35:00,44.3,27.3,29.75,North,0,0.0,0.0,51,0.00,,,0.00,WUHU216HW,2013-04-11 15:35:00,
2013-04-11 09:37:00,44.6,27.6,29.75,North,0,0.0,0.0,51,0.00,,,0.00,WUHU216HW,2013-04-11 15:37:00,
2013-04-11 09:38:00,44.8,27.8,29.75,North,0,0.0,0.0,51,0.00,,,0.00,WUHU216HW,2013-04-11 15:38:00,
2013-04-11 09:39:00,45.0,28.5,29.75,North,0,0.0,0.0,52,0.00,,,0.00,WUHU216HW,2013-04-11 15:39:00,
2013-04-11 09:40:00,45.2,28.1,29.75,North,0,0.0,0.0,51,0.00,,,0.00,WUHU216HW,2013-04-11 15:40:00,
2013-04-11 09:42:00,45.4,27.3,29.75,North,0,0.0,0.0,49,0.00,,,0.00,WUHU216HW,2013-04-11 15:42:00,
2013-04-11 09:43:00,45.2,27.1,29.75,North,0,0.0,0.0,49,0.00,,,0.00,WUHU216HW,2013-04-11 15:43:00,
2013-04-11 09:45:00,45.0,26.5,29.75,North,0,0.0,0.0,48,0.00,,,0.00,WUHU216HW,2013-04-11 15:45:00,
2013-04-11 09:47:00,45.0,26.5,29.75,North,0,0.0,0.0,48,0.00,,,0.00,WUHU216HW,2013-04-11 15:47:00,
2013-04-11 09:49:00,45.0,27.6,29.75,North,0,0.0,0.0,50,0.00,,,0.00,WUHU216HW,2013-04-11 15:49:00,
2013-04-11 09:50:00,45.2,27.1,29.75,North,0,0.0,0.0,49,0.00,,,0.00,WUHU216HW,2013-04-11 15:50:00,
2013-04-11 09:53:00,45.2,27.1,29.75,North,0,0.0,0.0,49,0.00,,,0.00,WUHU216HW,2013-04-11 15:53:00,
2013-04-11 09:54:00,45.2,26.6,29.75,North,0,0.0,0.0,48,0.00,,,0.00,WUHU216HW,2013-04-11 15:54:00,
2013-04-11 09:55:00,45.0,25.9,29.75,North,0,0.0,0.0,47,0.00,,,0.00,WUHU216HW,2013-04-11 15:55:00,
2013-04-11 09:56:00,45.0,25.9,29.75,North,0,0.0,0.0,47,0.00,,,0.00,WUHU216HW,2013-04-11 15:56:00,
2013-04-11 09:58:00,45.0,25.9,29.75,North,0,0.0,0.0,47,0.00,,,0.00,WUHU216HW,2013-04-11 15:58:00,
2013-04-11 09:59:00,44.8,25.8,29.75,North,0,0.0,0.0,47,0.00,,,0.00,WUHU216HW,2013-04-11 15:59:00,
2013-04-11 10:01:00,45.0,27.0,29.75,North,0,0.0,0.0,49,0.00,,,0.00,WUHU216HW,2013-04-11 16:01:00,
2013-04-11 10:03:00,45.4,26.7,29.75,North,0,0.0,0.0,48,0.00,,,0.00,WUHU216HW,2013-04-11 16:03:00,
2013-04-11 10:05:00,45.5,27.5,29.75,North,0,0.0,0.0,49,0.00,,,0.00,WUHU216HW,2013-04-11 16:05:00,
2013-04-11 10:06:00,45.7,26.6,29.75,North,0,0.0,0.0,47,0.00,,,0.00,WUHU216HW,2013-04-11 16:06:00,
2013-04-11 10:08:00,45.7,26.0,29.75,North,0,0.0,0.0,46,0.00,,,0.00,WUHU216HW,2013-04-11 16:08:00,
2013-04-11 10:10:00,45.7,26.0,29.74,North,0,0.0,0.0,46,0.00,,,0.00,WUHU216HW,2013-04-11 16:10:00,
2013-04-11 10:11:00,45.7,27.1,29.75,North,0,0.0,0.0,48,0.00,,,0.00,WUHU216HW,2013-04-11 16:11:00,
2013-04-11 10:14:00,45.9,26.2,29.74,North,0,0.0,0.0,46,0.00,,,0.00,WUHU216HW,2013-04-11 16:14:00,
2013-04-11 10:15:00,45.9,25.7,29.74,North,0,0.0,0.0,45,0.00,,,0.00,WUHU216HW,2013-04-11 16:15:00,
2013-04-11 10:17:00,46.1,26.3,29.75,North,0,0.0,0.0,46,0.00,,,0.00,WUHU216HW,2013-04-11 16:17:00,
2013-04-11 10:19:00,46.3,25.4,29.75,North,0,0.0,0.0,44,0.00,,,0.00,WUHU216HW,2013-04-11 16:19:00,
2013-04-11 10:20:00,45.9,25.1,29.75,North,0,0.0,0.0,44,0.00,,,0.00,WUHU216HW,2013-04-11 16:20:00,
2013-04-11 10:22:00,45.9,26.7,29.75,North,0,0.0,0.0,47,0.00,,,0.00,WUHU216HW,2013-04-11 16:22:00,
2013-04-11 10:24:00,46.3,26.5,29.75,North,0,0.0,0.0,46,0.00,,,0.00,WUHU216HW,2013-04-11 16:24:00,
2013-04-11 10:25:00,46.4,26.1,29.75,North,0,0.0,0.0,45,0.00,,,0.00,WUHU216HW,2013-04-11 16:25:00,
2013-04-11 10:28:00,46.4,26.6,29.75,North,0,0.0,0.0,46,0.00,,,0.00,WUHU216HW,2013-04-11 16:28:00,
2013-04-11 10:29:00,46.8,26.5,29.75,North,0,0.0,0.0,45,0.00,,,0.00,WUHU216HW,2013-04-11 16:29:00,
2013-04-11 10:31:00,47.0,27.6,29.75,North,0,0.0,0.0,47,0.00,,,0.00,WUHU216HW,2013-04-11 16:31:00,
2013-04-11 10:33:00,47.2,27.3,29.75,North,0,0.0,0.0,46,0.00,,,0.00,WUHU216HW,2013-04-11 16:33:00,
2013-04-11 10:34:00,47.2,26.2,29.75,North,0,0.0,0.0,44,0.00,,,0.00,WUHU216HW,2013-04-11 16:34:00,
2013-04-11 10:35:00,46.8,25.9,29.75,North,0,0.0,0.0,44,0.00,,,0.00,WUHU216HW,2013-04-11 16:35:00,
2013-04-11 10:36:00,46.8,24.9,29.75,North,0,0.0,0.0,42,0.00,,,0.00,WUHU216HW,2013-04-11 16:36:00,
2013-04-11 10:38:00,46.6,25.8,29.75,North,0,0.0,0.0,44,0.00,,,0.00,WUHU216HW,2013-04-11 16:38:00,
2013-04-11 10:40:00,46.4,25.6,29.75,North,0,0.0,0.0,44,0.00,,,0.00,WUHU216HW,2013-04-11 16:40:00,
2013-04-11 10:41:00,46.4,25.0,29.75,North,0,0.0,0.0,43,0.00,,,0.00,WUHU216HW,2013-04-11 16:41:00,
2013-04-11 10:43:00,46.6,25.2,29.75,North,0,0.0,0.0,43,0.00,,,0.00,WUHU216HW,2013-04-11 16:43:00,
2013-04-11 10:45:00,47.2,26.7,29.75,North,0,0.0,0.0,45,0.00,,,0.00,WUHU216HW,2013-04-11 16:45:00,
2013-04-11 10:46:00,47.2,25.7,29.75,North,0,0.0,0.0,43,0.00,,,0.00,WUHU216HW,2013-04-11 16:46:00,
2013-04-11 10:48:00,47.2,25.1,29.75,North,0,0.0,0.0,42,0.00,,,0.00,WUHU216HW,2013-04-11 16:48:00,
2013-04-11 10:50:00,47.0,24.9,29.76,North,0,0.0,0.0,42,0.00,,,0.00,WUHU216HW,2013-04-11 16:50:00,
2013-04-11 10:51:00,47.0,24.9,29.75,North,0,0.0,0.0,42,0.00,,,0.00,WUHU216HW,2013-04-11 16:51:00,
2013-04-11 10:53:00,46.4,24.5,29.75,North,0,0.0,0.0,42,0.00,,,0.00,WUHU216HW,2013-04-11 16:53:00,
2013-04-11 10:55:00,46.4,25.6,29.75,North,0,0.0,0.0,44,0.00,,,0.00,WUHU216HW,2013-04-11 16:55:00,
2013-04-11 10:57:00,46.3,24.8,29.75,North,0,0.0,0.0,43,0.00,,,0.00,WUHU216HW,2013-04-11 16:57:00,
2013-04-11 10:58:00,46.1,24.7,29.75,North,0,0.0,0.0,43,0.00,,,0.00,WUHU216HW,2013-04-11 16:58:00,
2013-04-11 11:00:00,46.1,25.7,29.75,North,0,0.0,0.0,45,0.00,,,0.00,WUHU216HW,2013-04-11 17:00:00,
2013-04-11 11:03:00,46.4,26.6,29.75,North,0,0.0,0.0,46,0.00,,,0.00,WUHU216HW,2013-04-11 17:03:00,
2013-04-11 11:05:00,46.8,26.5,29.75,North,0,0.0,0.0,45,0.00,,,0.00,WUHU216HW,2013-04-11 17:05:00,
2013-04-11 11:08:00,47.2,26.2,29.76,North,0,0.0,0.0,44,0.00,,,0.00,WUHU216HW,2013-04-11 17:08:00,
2013-04-11 11:10:00,46.6,25.8,29.76,North,0,0.0,0.0,44,0.00,,,0.00,WUHU216HW,2013-04-11 17:10:00,
2013-04-11 11:13:00,46.3,24.8,29.76,North,0,0.0,0.0,43,0.00,,,0.00,WUHU216HW,2013-04-11 17:13:00,
2013-04-11 11:14:00,45.9,24.6,29.76,North,0,0.0,0.0,43,0.00,,,0.00,WUHU216HW,2013-04-11 17:14:00,
2013-04-11 11:15:00,45.7,23.9,29.76,North,0,0.0,0.0,42,0.00,,,0.00,WUHU216HW,2013-04-11 17:15:00,
2013-04-11 11:18:00,45.7,24.9,29.76,North,0,0.0,0.0,44,0.00,,,0.00,WUHU216HW,2013-04-11 17:18:00,
2013-04-11 11:19:00,45.7,24.4,29.76,North,0,0.0,0.0,43,0.00,,,0.00,WUHU216HW,2013-04-11 17:19:00,
2013-04-11 11:20:00,45.7,24.9,29.76,North,0,0.0,0.0,44,0.00,,,0.00,WUHU216HW,2013-04-11 17:20:00,
2013-04-11 11:23:00,45.5,24.2,29.76,North,0,0.0,0.0,43,0.00,,,0.00,WUHU216HW,2013-04-11 17:23:00,
2013-04-11 11:24:00,45.7,24.4,29.76,North,0,0.0,0.0,43,0.00,,,0.00,WUHU216HW,2013-04-11 17:24:00,
2013-04-11 11:25:00,45.5,24.2,29.76,North,0,0.0,0.0,43,0.00,,,0.00,WUHU216HW,2013-04-11 17:25:00,
2013-04-11 11:28:00,45.5,24.8,29.76,North,0,0.0,0.0,44,0.00,,,0.00,WUHU216HW,2013-04-11 17:28:00,
2013-04-11 11:29:00,45.7,24.4,29.76,North,0,0.0,0.0,43,0.00,,,0.00,WUHU216HW,2013-04-11 17:29:00,
2013-04-11 11:30:00,45.7,24.4,29.76,North,0,0.0,0.0,43,0.00,,,0.00,WUHU216HW,2013-04-11 17:30:00,
2013-04-11 11:31:00,45.7,24.4,29.76,North,0,0.0,0.0,43,0.00,,,0.00,WUHU216HW,2013-04-11 17:31:00,
2013-04-11 11:33:00,45.5,24.2,29.76,North,0,0.0,0.0,43,0.00,,,0.00,WUHU216HW,2013-04-11 17:33:00,
2013-04-11 11:34:00,45.5,24.2,29.76,North,0,0.0,0.0,43,0.00,,,0.00,WUHU216HW,2013-04-11 17:34:00,
2013-04-11 11:35:00,45.7,25.5,29.76,North,0,0.0,0.0,45,0.00,,,0.00,WUHU216HW,2013-04-11 17:35:00,
2013-04-11 11:36:00,45.7,25.5,29.76,North,0,0.0,0.0,45,0.00,,,0.00,WUHU216HW,2013-04-11 17:36:00,
2013-04-11 11:38:00,45.9,24.6,29.76,North,0,0.0,0.0,43,0.00,,,0.00,WUHU216HW,2013-04-11 17:38:00,
2013-04-11 11:39:00,46.1,24.7,29.76,North,0,0.0,0.0,43,0.00,,,0.00,WUHU216HW,2013-04-11 17:39:00,
2013-04-11 11:40:00,46.3,24.8,29.76,North,0,0.0,0.0,43,0.00,,,0.00,WUHU216HW,2013-04-11 17:40:00,
2013-04-11 11:42:00,46.4,25.0,29.75,North,0,0.0,0.0,43,0.00,,,0.00,WUHU216HW,2013-04-11 17:42:00,
2013-04-11 11:43:00,47.0,24.9,29.76,North,0,0.0,0.0,42,0.00,,,0.00,WUHU216HW,2013-04-11 17:43:00,
2013-04-11 11:44:00,47.3,25.3,29.76,North,0,0.0,0.0,42,0.00,,,0.00,WUHU216HW,2013-04-11 17:44:00,
2013-04-11 11:46:00,47.9,25.7,29.76,North,0,0.0,0.0,42,0.00,,,0.00,WUHU216HW,2013-04-11 17:46:00,
2013-04-11 11:47:00,48.1,26.5,29.75,North,0,0.0,0.0,43,0.00,,,0.00,WUHU216HW,2013-04-11 17:47:00,
2013-04-11 11:48:00,48.2,25.0,29.76,North,0,0.0,0.0,40,0.00,,,0.00,WUHU216HW,2013-04-11 17:48:00,
2013-04-11 11:49:00,48.1,25.4,29.76,North,0,0.0,0.0,41,0.00,,,0.00,WUHU216HW,2013-04-11 17:49:00,
2013-04-11 11:51:00,48.2,25.0,29.76,North,0,0.0,0.0,40,0.00,,,0.00,WUHU216HW,2013-04-11 17:51:00,
2013-04-11 11:52:00,48.1,24.2,29.76,North,0,0.0,0.0,39,0.00,,,0.00,WUHU216HW,2013-04-11 17:52:00,
2013-04-11 11:53:00,47.7,23.9,29.76,North,0,0.0,0.0,39,0.00,,,0.00,WUHU216HW,2013-04-11 17:53:00,
2013-04-11 11:55:00,47.3,24.2,29.76,North,0,0.0,0.0,40,0.00,,,0.00,WUHU216HW,2013-04-11 17:55:00,
2013-04-11 11:57:00,47.2,24.0,29.76,North,0,0.0,0.0,40,0.00,,,0.00,WUHU216HW,2013-04-11 17:57:00,
2013-04-11 11:58:00,47.2,23.4,29.76,North,0,0.0,0.0,39,0.00,,,0.00,WUHU216HW,2013-04-11 17:58:00,
2013-04-11 12:00:00,47.3,22.9,29.76,North,0,0.0,0.0,38,0.00,,,0.00,WUHU216HW,2013-04-11 18:00:00,
2013-04-11 12:02:00,47.3,23.6,29.76,North,0,0.0,0.0,39,0.00,,,0.00,WUHU216HW,2013-04-11 18:02:00,
2013-04-11 12:03:00,47.7,23.9,29.76,North,0,0.0,0.0,39,0.00,,,0.00,WUHU216HW,2013-04-11 18:03:00,
2013-04-11 12:04:00,47.7,23.9,29.76,North,0,0.0,0.0,39,0.00,,,0.00,WUHU216HW,2013-04-11 18:04:00,
2013-04-11 12:05:00,48.1,24.2,29.76,North,0,0.0,0.0,39,0.00,,,0.00,WUHU216HW,2013-04-11 18:05:00,
2013-04-11 12:07:00,48.8,24.1,29.76,North,0,0.0,0.0,38,0.00,,,0.00,WUHU216HW,2013-04-11 18:07:00,
2013-04-11 12:08:00,48.8,24.1,29.76,North,0,0.0,0.0,38,0.00,,,0.00,WUHU216HW,2013-04-11 18:08:00,
2013-04-11 12:09:00,48.8,24.1,29.76,North,0,0.0,0.0,38,0.00,,,0.00,WUHU216HW,2013-04-11 18:09:00,
2013-04-11 12:10:00,49.0,24.3,29.76,North,0,0.0,0.0,38,0.00,,,0.00,WUHU216HW,2013-04-11 18:10:00,
2013-04-11 12:12:00,49.3,24.7,29.76,North,0,0.0,0.0,38,0.00,,,0.00,WUHU216HW,2013-04-11 18:12:00,
2013-04-11 12:14:00,49.3,24.7,29.75,North,0,0.0,0.0,38,0.00,,,0.00,WUHU216HW,2013-04-11 18:14:00,
2013-04-11 12:15:00,49.1,24.5,29.75,North,0,0.0,0.0,38,0.00,,,0.00,WUHU216HW,2013-04-11 18:15:00,
2013-04-11 12:17:00,49.3,24.7,29.75,North,0,0.0,0.0,38,0.00,,,0.00,WUHU216HW,2013-04-11 18:17:00,
2013-04-11 12:19:00,49.3,23.9,29.75,North,0,0.0,0.0,37,0.00,,,0.00,WUHU216HW,2013-04-11 18:19:00,
2013-04-11 12:20:00,49.0,24.3,29.75,North,0,0.0,0.0,38,0.00,,,0.00,WUHU216HW,2013-04-11 18:20:00,
2013-04-11 12:24:00,49.0,23.7,29.75,North,0,0.0,0.0,37,0.00,,,0.00,WUHU216HW,2013-04-11 18:24:00,
2013-04-11 12:25:00,49.1,24.5,29.75,North,0,0.0,0.0,38,0.00,,,0.00,WUHU216HW,2013-04-11 18:25:00,
2013-04-11 12:29:00,49.9,25.1,29.75,North,0,0.0,0.0,38,0.00,,,0.00,WUHU216HW,2013-04-11 18:29:00,
2013-04-11 12:30:00,50.0,24.6,29.75,North,0,0.0,0.0,37,0.00,,,0.00,WUHU216HW,2013-04-11 18:30:00,
2013-04-11 12:34:00,50.4,25.6,29.75,North,0,0.0,0.0,38,0.00,,,0.00,WUHU216HW,2013-04-11 18:34:00,
2013-04-11 12:35:00,50.8,25.9,29.75,North,0,0.0,0.0,38,0.00,,,0.00,WUHU216HW,2013-04-11 18:35:00,
2013-04-11 12:39:00,51.3,25.0,29.75,North,0,0.0,0.0,36,0.00,,,0.00,WUHU216HW,2013-04-11 18:39:00,
2013-04-11 12:40:00,51.3,24.4,29.75,North,0,0.0,0.0,35,0.00,,,0.00,WUHU216HW,2013-04-11 18:40:00,
2013-04-11 12:44:00,50.8,23.9,29.74,North,0,0.0,0.0,35,0.00,,,0.00,WUHU216HW,2013-04-11 18:44:00,
2013-04-11 12:45:00,50.8,23.9,29.74,North,0,0.0,0.0,35,0.00,,,0.00,WUHU216HW,2013-04-11 18:45:00,
2013-04-11 12:46:00,51.1,24.8,29.74,North,0,0.0,0.0,36,0.00,,,0.00,WUHU216HW,2013-04-11 18:46:00,
2013-04-11 12:50:00,51.3,23.7,29.74,North,0,0.0,0.0,34,0.00,,,0.00,WUHU216HW,2013-04-11 18:50:00,
2013-04-11 12:55:00,50.8,22.5,29.74,North,0,0.0,0.0,33,0.00,,,0.00,WUHU216HW,2013-04-11 18:55:00,
2013-04-11 13:00:00,50.4,22.1,29.74,North,0,0.0,0.0,33,0.00,,,0.00,WUHU216HW,2013-04-11 19:00:00,
2013-04-11 13:05:00,50.9,22.7,29.74,North,0,0.0,0.0,33,0.00,,,0.00,WUHU216HW,2013-04-11 19:05:00,
2013-04-11 13:06:00,50.9,22.7,29.74,North,0,0.0,0.0,33,0.00,,,0.00,WUHU216HW,2013-04-11 19:06:00,
2013-04-11 13:10:00,50.6,22.3,29.74,North,0,0.0,0.0,33,0.00,,,0.00,WUHU216HW,2013-04-11 19:10:00,
2013-04-11 13:11:00,50.6,23.1,29.74,North,0,0.0,0.0,34,0.00,,,0.00,WUHU216HW,2013-04-11 19:11:00,
2013-04-11 13:15:00,51.5,21.8,29.74,North,0,0.0,0.0,31,0.00,,,0.00,WUHU216HW,2013-04-11 19:15:00,
2013-04-11 13:16:00,51.5,21.8,29.74,North,0,0.0,0.0,31,0.00,,,0.00,WUHU216HW,2013-04-11 19:16:00,
2013-04-11 13:17:00,51.5,23.1,29.74,North,0,0.0,0.0,33,0.00,,,0.00,WUHU216HW,2013-04-11 19:17:00,
2013-04-11 13:18:00,51.5,23.1,29.74,North,0,0.0,0.0,33,0.00,,,0.00,WUHU216HW,2013-04-11 19:18:00,
2013-04-11 13:20:00,51.5,23.1,29.74,North,0,0.0,0.0,33,0.00,,,0.00,WUHU216HW,2013-04-11 19:20:00,
2013-04-11 13:21:00,51.8,24.1,29.74,North,0,0.0,0.0,34,0.00,,,0.00,WUHU216HW,2013-04-11 19:21:00,
2013-04-11 13:22:00,51.7,22.6,29.74,North,0,0.0,0.0,32,0.00,,,0.00,WUHU216HW,2013-04-11 19:22:00,
2013-04-11 13:23:00,51.7,22.6,29.74,North,0,0.0,0.0,32,0.00,,,0.00,WUHU216HW,2013-04-11 19:23:00,
2013-04-11 13:26:00,50.4,22.1,29.74,North,0,0.0,0.0,33,0.00,,,0.00,WUHU216HW,2013-04-11 19:26:00,
2013-04-11 13:27:00,49.3,22.0,29.74,North,0,0.0,0.0,34,0.00,,,0.00,WUHU216HW,2013-04-11 19:27:00,
2013-04-11 13:28:00,49.3,22.0,29.74,North,0,0.0,0.0,34,0.00,,,0.00,WUHU216HW,2013-04-11 19:28:00,
2013-04-11 13:31:00,48.2,21.7,29.74,North,0,0.0,0.0,35,0.00,,,0.00,WUHU216HW,2013-04-11 19:31:00,
2013-04-11 13:32:00,48.1,22.2,29.74,North,0,0.0,0.0,36,0.00,,,0.00,WUHU216HW,2013-04-11 19:32:00,
2013-04-11 13:33:00,48.1,22.2,29.74,North,0,0.0,0.0,36,0.00,,,0.00,WUHU216HW,2013-04-11 19:33:00,
2013-04-11 13:36:00,48.6,22.7,29.73,North,0,0.0,0.0,36,0.00,,,0.00,WUHU216HW,2013-04-11 19:36:00,
2013-04-11 13:37:00,48.8,22.9,29.73,North,0,0.0,0.0,36,0.00,,,0.00,WUHU216HW,2013-04-11 19:37:00,
2013-04-11 13:38:00,49.0,23.0,29.73,North,0,0.0,0.0,36,0.00,,,0.00,WUHU216HW,2013-04-11 19:38:00,
2013-04-11 13:42:00,50.4,22.9,29.73,North,0,0.0,0.0,34,0.00,,,0.00,WUHU216HW,2013-04-11 19:42:00,
2013-04-11 13:43:00,50.6,23.1,29.73,North,0,0.0,0.0,34,0.00,,,0.00,WUHU216HW,2013-04-11 19:43:00,
2013-04-11 13:44:00,50.8,24.6,29.73,North,0,0.0,0.0,36,0.00,,,0.00,WUHU216HW,2013-04-11 19:44:00,
2013-04-11 13:48:00,50.4,23.6,29.73,North,0,0.0,0.0,35,0.00,,,0.00,WUHU216HW,2013-04-11 19:48:00,
2013-04-11 13:49:00,50.6,23.1,29.73,North,0,0.0,0.0,34,0.00,,,0.00,WUHU216HW,2013-04-11 19:49:00,
2013-04-11 13:53:00,50.8,21.8,29.73,North,0,0.0,0.0,32,0.00,,,0.00,WUHU216HW,2013-04-11 19:53:00,
2013-04-11 13:54:00,50.8,21.8,29.73,North,0,0.0,0.0,32,0.00,,,0.00,WUHU216HW,2013-04-11 19:54:00,
2013-04-11 13:58:00,51.1,21.4,29.73,North,0,0.0,0.0,31,0.00,,,0.00,WUHU216HW,2013-04-11 19:58:00,
2013-04-11 13:59:00,51.1,21.4,29.73,North,0,0.0,0.0,31,0.00,,,0.00,WUHU216HW,2013-04-11 19:59:00,
2013-04-11 14:03:00,51.3,22.3,29.73,North,0,0.0,0.0,32,0.00,,,0.00,WUHU216HW,2013-04-11 20:03:00,
2013-04-11 14:04:00,51.5,22.5,29.73,North,0,0.0,0.0,32,0.00,,,0.00,WUHU216HW,2013-04-11 20:04:00,
2013-04-11 14:08:00,51.5,21.8,29.73,North,0,0.0,0.0,31,0.00,,,0.00,WUHU216HW,2013-04-11 20:08:00,
2013-04-11 14:09:00,51.5,21.8,29.73,North,0,0.0,0.0,31,0.00,,,0.00,WUHU216HW,2013-04-11 20:09:00,
2013-04-11 14:13:00,51.8,22.8,29.73,North,0,0.0,0.0,32,0.00,,,0.00,WUHU216HW,2013-04-11 20:13:00,
2013-04-11 14:14:00,51.8,22.2,29.73,North,0,0.0,0.0,31,0.00,,,0.00,WUHU216HW,2013-04-11 20:14:00,
2013-04-11 14:18:00,51.1,22.1,29.73,North,0,0.0,0.0,32,0.00,,,0.00,WUHU216HW,2013-04-11 20:18:00,
2013-04-11 14:19:00,51.1,21.4,29.73,North,0,0.0,0.0,31,0.00,,,0.00,WUHU216HW,2013-04-11 20:19:00,
2013-04-11 14:23:00,51.7,22.6,29.72,North,0,0.0,0.0,32,0.00,,,0.00,WUHU216HW,2013-04-11 20:23:00,
2013-04-11 14:24:00,51.7,22.6,29.72,North,0,0.0,0.0,32,0.00,,,0.00,WUHU216HW,2013-04-11 20:24:00,
2013-04-11 14:25:00,51.7,22.6,29.72,North,0,0.0,0.0,32,0.00,,,0.00,WUHU216HW,2013-04-11 20:25:00,
2013-04-11 14:29:00,50.8,22.5,29.72,North,0,0.0,0.0,33,0.00,,,0.00,WUHU216HW,2013-04-11 20:29:00,
2013-04-11 14:30:00,50.4,22.1,29.72,North,0,0.0,0.0,33,0.00,,,0.00,WUHU216HW,2013-04-11 20:30:00,
2013-04-11 14:34:00,50.8,21.8,29.73,North,0,0.0,0.0,32,0.00,,,0.00,WUHU216HW,2013-04-11 20:34:00,
2013-04-11 14:35:00,51.1,20.8,29.73,North,0,0.0,0.0,30,0.00,,,0.00,WUHU216HW,2013-04-11 20:35:00,
2013-04-11 14:39:00,50.9,21.3,29.73,North,0,16.6,16.6,31,0.00,,,0.00,WUHU216HW,2013-04-11 20:39:00,
2013-04-11 14:40:00,51.1,21.4,29.72,NW,315,17.2,17.2,31,0.00,,,0.00,WUHU216HW,2013-04-11 20:40:00,
2013-04-11 14:44:00,51.1,21.4,29.72,NW,315,17.9,18.1,31,0.00,,,0.00,WUHU216HW,2013-04-11 20:44:00,
2013-04-11 14:45:00,50.9,21.3,29.72,NW,315,17.9,18.1,31,0.00,,,0.00,WUHU216HW,2013-04-11 20:45:00,
2013-04-11 14:49:00,50.6,21.7,29.72,NW,315,19.7,19.7,32,0.00,,,0.00,WUHU216HW,2013-04-11 20:49:00,
2013-04-11 14:50:00,50.0,20.5,29.72,North,0,12.8,19.7,31,0.00,,,0.00,WUHU216HW,2013-04-11 20:50:00,
2013-04-11 14:54:00,49.7,20.9,29.72,NW,315,13.4,19.7,32,0.00,,,0.00,WUHU216HW,2013-04-11 20:54:00,
2013-04-11 14:55:00,49.9,20.4,29.72,NNW,338,17.2,19.7,31,0.00,,,0.00,WUHU216HW,2013-04-11 20:55:00,
2013-04-11 14:56:00,49.9,21.1,29.72,NNW,338,17.2,19.7,32,0.00,,,0.00,WUHU216HW,2013-04-11 20:56:00,
2013-04-11 14:59:00,50.0,19.8,29.72,NW,315,18.3,19.7,30,0.00,,,0.00,WUHU216HW,2013-04-11 20:59:00,
2013-04-11 15:00:00,49.7,20.2,29.72,NNW,338,16.6,18.3,31,0.00,,,0.00,WUHU216HW,2013-04-11 21:00:00,
2013-04-11 15:02:00,49.5,19.4,29.72,NNW,338,16.6,18.3,30,0.00,,,0.00,WUHU216HW,2013-04-11 21:02:00,
2013-04-11 15:04:00,49.3,18.3,29.72,NW,315,15.7,18.3,29,0.00,,,0.00,WUHU216HW,2013-04-11 21:04:00,
2013-04-11 15:05:00,49.3,19.3,29.72,NW,315,15.7,18.3,30,0.00,,,0.00,WUHU216HW,2013-04-11 21:05:00,
2013-04-11 15:07:00,49.3,19.3,29.72,North,0,0.0,18.3,30,0.00,,,0.00,WUHU216HW,2013-04-11 21:07:00,
2013-04-11 15:09:00,49.5,20.1,29.72,North,0,0.0,16.6,31,0.00,,,0.00,WUHU216HW,2013-04-11 21:09:00,
2013-04-11 15:10:00,49.3,19.9,29.72,North,0,0.0,16.6,31,0.00,,,0.00,WUHU216HW,2013-04-11 21:10:00,
2013-04-11 15:12:00,49.5,20.1,29.72,North,0,0.0,15.7,31,0.00,,,0.00,WUHU216HW,2013-04-11 21:12:00,
2013-04-11 15:14:00,49.7,19.5,29.72,North,0,0.0,15.7,30,0.00,,,0.00,WUHU216HW,2013-04-11 21:14:00,
2013-04-11 15:15:00,49.9,18.7,29.72,North,0,0.0,15.7,29,0.00,,,0.00,WUHU216HW,2013-04-11 21:15:00,
2013-04-11 15:16:00,49.9,18.7,29.72,North,0,0.0,15.7,29,0.00,,,0.00,WUHU216HW,2013-04-11 21:16:00,
2013-04-11 15:17:00,49.9,17.8,29.72,North,0,0.0,0.0,28,0.00,,,0.00,WUHU216HW,2013-04-11 21:17:00,
2013-04-11 15:19:00,49.3,18.3,29.72,North,0,16.3,16.3,29,0.00,,,0.00,WUHU216HW,2013-04-11 21:19:00,
2013-04-11 15:20:00,49.3,17.4,29.71,North,0,16.3,16.3,28,0.00,,,0.00,WUHU216HW,2013-04-11 21:20:00,
2013-04-11 15:22:00,49.1,18.2,29.71,North,0,16.3,16.3,29,0.00,,,0.00,WUHU216HW,2013-04-11 21:22:00,
2013-04-11 15:25:00,49.0,19.6,29.72,North,0,0.0,16.3,31,0.00,,,0.00,WUHU216HW,2013-04-11 21:25:00,
2013-04-11 15:27:00,49.1,19.1,29.72,North,0,0.0,16.3,30,0.00,,,0.00,WUHU216HW,2013-04-11 21:27:00,
2013-04-11 15:30:00,49.5,19.4,29.71,North,0,0.0,16.3,30,0.00,,,0.00,WUHU216HW,2013-04-11 21:30:00,
2013-04-11 15:32:00,49.7,18.6,29.72,North,0,0.0,16.3,29,0.00,,,0.00,WUHU216HW,2013-04-11 21:32:00,
2013-04-11 15:35:00,49.7,20.2,29.71,North,0,0.0,0.0,31,0.00,,,0.00,WUHU216HW,2013-04-11 21:35:00,
2013-04-11 15:37:00,49.7,19.5,29.71,North,0,0.0,0.0,30,0.00,,,0.00,WUHU216HW,2013-04-11 21:37:00,
2013-04-11 15:38:00,49.7,19.5,29.71,North,0,0.0,0.0,30,0.00,,,0.00,WUHU216HW,2013-04-11 21:38:00,
2013-04-11 15:40:00,49.1,19.7,29.71,North,0,0.0,0.0,31,0.00,,,0.00,WUHU216HW,2013-04-11 21:40:00,
2013-04-11 15:42:00,49.0,19.6,29.71,North,0,0.0,0.0,31,0.00,,,0.00,WUHU216HW,2013-04-11 21:42:00,
2013-04-11 15:43:00,48.8,20.2,29.71,North,0,0.0,0.0,32,0.00,,,0.00,WUHU216HW,2013-04-11 21:43:00,
2013-04-11 15:45:00,48.6,20.0,29.71,North,0,0.0,0.0,32,0.00,,,0.00,WUHU216HW,2013-04-11 21:45:00,
2013-04-11 15:48:00,48.6,20.7,29.71,North,0,0.0,0.0,33,0.00,,,0.00,WUHU216HW,2013-04-11 21:48:00,
2013-04-11 15:50:00,48.4,23.9,29.71,North,0,0.0,0.0,38,0.00,,,0.00,WUHU216HW,2013-04-11 21:50:00,
2013-04-11 15:53:00,47.9,23.4,29.71,North,0,0.0,0.0,38,0.00,,,0.00,WUHU216HW,2013-04-11 21:53:00,
2013-04-11 15:55:00,47.5,23.0,29.71,North,0,0.0,0.0,38,0.00,,,0.00,WUHU216HW,2013-04-11 21:55:00,
2013-04-11 15:58:00,47.7,23.2,29.71,North,0,0.0,0.0,38,0.00,,,0.00,WUHU216HW,2013-04-11 21:58:00,
2013-04-11 16:00:00,47.7,23.2,29.71,North,0,0.0,0.0,38,0.00,,,0.00,WUHU216HW,2013-04-11 22:00:00,
2013-04-11 16:03:00,47.5,23.0,29.71,North,0,0.0,0.0,38,0.00,,,0.00,WUHU216HW,2013-04-11 22:03:00,
2013-04-11 16:05:00,47.3,22.9,29.71,North,0,0.0,0.0,38,0.00,,,0.00,WUHU216HW,2013-04-11 22:05:00,
2013-04-11 16:08:00,47.2,22.7,29.71,North,0,0.0,0.0,38,0.00,,,0.00,WUHU216HW,2013-04-11 22:08:00,
2013-04-11 16:10:00,47.2,22.7,29.71,North,0,0.0,0.0,38,0.00,,,0.00,WUHU216HW,2013-04-11 22:10:00,
2013-04-11 16:13:00,47.2,23.4,29.71,North,0,0.0,0.0,39,0.00,,,0.00,WUHU216HW,2013-04-11 22:13:00,
2013-04-11 16:14:00,47.0,23.2,29.71,North,0,0.0,0.0,39,0.00,,,0.00,WUHU216HW,2013-04-11 22:14:00,
2013-04-11 16:15:00,47.0,23.2,29.71,North,0,0.0,0.0,39,0.00,,,0.00,WUHU216HW,2013-04-11 22:15:00,
2013-04-11 16:18:00,47.0,22.6,29.71,North,0,0.0,0.0,38,0.00,,,0.00,WUHU216HW,2013-04-11 22:18:00,
2013-04-11 16:19:00,47.0,23.2,29.71,North,0,0.0,0.0,39,0.00,,,0.00,WUHU216HW,2013-04-11 22:19:00,
2013-04-11 16:20:00,47.0,23.2,29.71,North,0,0.0,0.0,39,0.00,,,0.00,WUHU216HW,2013-04-11 22:20:00,
2013-04-11 16:23:00,47.0,23.2,29.71,North,0,0.0,0.0,39,0.00,,,0.00,WUHU216HW,2013-04-11 22:23:00,
2013-04-11 16:24:00,47.0,22.6,29.71,North,0,0.0,0.0,38,0.00,,,0.00,WUHU216HW,2013-04-11 22:24:00,
2013-04-11 16:26:00,46.8,23.0,29.71,North,0,0.0,0.0,39,0.00,,,0.00,WUHU216HW,2013-04-11 22:26:00,
2013-04-11 16:28:00,46.8,23.0,29.71,North,0,0.0,0.0,39,0.00,,,0.00,WUHU216HW,2013-04-11 22:28:00,
2013-04-11 16:29:00,46.8,23.0,29.71,North,0,0.0,0.0,39,0.00,,,0.00,WUHU216HW,2013-04-11 22:29:00,
2013-04-11 16:32:00,47.0,23.2,29.71,North,0,0.0,0.0,39,0.00,,,0.00,WUHU216HW,2013-04-11 22:32:00,
2013-04-11 16:34:00,47.0,23.2,29.71,North,0,0.0,0.0,39,0.00,,,0.00,WUHU216HW,2013-04-11 22:34:00,
2013-04-11 16:37:00,47.2,22.7,29.71,North,0,0.0,0.0,38,0.00,,,0.00,WUHU216HW,2013-04-11 22:37:00,
2013-04-11 16:39:00,47.2,22.1,29.71,NNW,338,17.2,17.2,37,0.00,,,0.00,WUHU216HW,2013-04-11 22:39:00,
2013-04-11 16:42:00,47.5,21.7,29.71,North,0,17.2,17.9,36,0.00,,,0.00,WUHU216HW,2013-04-11 22:42:00,
2013-04-11 16:44:00,47.3,22.2,29.71,NNW,338,15.0,17.9,37,0.00,,,0.00,WUHU216HW,2013-04-11 22:44:00,
2013-04-11 16:45:00,47.3,22.2,29.71,NNW,338,13.0,17.9,37,0.00,,,0.00,WUHU216HW,2013-04-11 22:45:00,
2013-04-11 16:48:00,47.5,22.4,29.71,NW,315,12.8,17.9,37,0.00,,,0.00,WUHU216HW,2013-04-11 22:48:00,
2013-04-11 16:49:00,47.5,22.4,29.71,NNW,338,14.3,17.9,37,0.00,,,0.00,WUHU216HW,2013-04-11 22:49:00,
2013-04-11 16:50:00,47.5,22.4,29.71,NNW,338,13.6,17.9,37,0.00,,,0.00,WUHU216HW,2013-04-11 22:50:00,
2013-04-11 16:53:00,47.5,21.7,29.71,NNW,338,15.0,21.5,36,0.00,,,0.00,WUHU216HW,2013-04-11 22:53:00,
2013-04-11 16:54:00,47.5,21.7,29.71,North,0,15.2,21.5,36,0.00,,,0.00,WUHU216HW,2013-04-11 22:54:00,
2013-04-11 16:55:00,47.3,21.5,29.71,NNW,338,14.3,21.5,36,0.00,,,0.00,WUHU216HW,2013-04-11 22:55:00,
2013-04-11 16:58:00,47.5,20.3,29.71,NNW,338,15.9,21.7,34,0.00,,,0.00,WUHU216HW,2013-04-11 22:58:00,
2013-04-11 16:59:00,47.3,20.3,29.71,NNW,338,13.2,21.7,34,0.00,,,0.00,WUHU216HW,2013-04-11 22:59:00,
2013-04-11 17:00:00,47.5,20.3,29.71,NNW,338,17.0,21.7,34,0.00,,,0.00,WUHU216HW,2013-04-11 23:00:00,
2013-04-11 17:03:00,47.5,20.3,29.72,NNW,338,20.4,22.4,34,0.00,,,0.00,WUHU216HW,2013-04-11 23:03:00,
2013-04-11 17:04:00,47.5,20.3,29.72,NW,315,15.4,22.4,34,0.00,,,0.00,WUHU216HW,2013-04-11 23:04:00,
2013-04-11 17:05:00,47.5,21.1,29.72,North,0,12.5,22.4,35,0.00,,,0.00,WUHU216HW,2013-04-11 23:05:00,
2013-04-11 17:08:00,47.5,19.7,29.72,NNW,338,15.7,22.4,33,0.00,,,0.00,WUHU216HW,2013-04-11 23:08:00,
2013-04-11 17:09:00,47.5,20.3,29.71,NW,315,14.3,22.4,34,0.00,,,0.00,WUHU216HW,2013-04-11 23:09:00,
2013-04-11 17:10:00,47.3,20.3,29.72,North,0,13.2,22.4,34,0.00,,,0.00,WUHU216HW,2013-04-11 23:10:00,
2013-04-11 17:11:00,47.3,20.3,29.72,NNW,338,12.8,22.4,34,0.00,,,0.00,WUHU216HW,2013-04-11 23:11:00,
2013-04-11 17:13:00,47.2,20.1,29.71,NNW,338,11.2,17.9,34,0.00,,,0.00,WUHU216HW,2013-04-11 23:13:00,
2013-04-11 17:15:00,47.2,20.1,29.71,NNW,338,14.1,17.9,34,0.00,,,0.00,WUHU216HW,2013-04-11 23:15:00,
2013-04-11 17:16:00,47.0,19.9,29.72,NW,315,11.6,17.9,34,0.00,,,0.00,WUHU216HW,2013-04-11 23:16:00,
2013-04-11 17:18:00,46.8,19.1,29.72,North,0,14.3,17.2,33,0.00,,,0.00,WUHU216HW,2013-04-11 23:18:00,
2013-04-11 17:19:00,46.8,19.7,29.72,North,0,18.1,18.1,34,0.00,,,0.00,WUHU216HW,2013-04-11 23:19:00,
2013-04-11 17:20:00,46.8,19.1,29.72,NNW,338,17.2,18.1,33,0.00,,,0.00,WUHU216HW,2013-04-11 23:20:00,
2013-04-11 17:21:00,46.4,18.7,29.72,North,0,12.1,18.1,33,0.00,,,0.00,WUHU216HW,2013-04-11 23:21:00,
2013-04-11 17:23:00,46.4,19.5,29.72,North,0,12.8,18.1,34,0.00,,,0.00,WUHU216HW,2013-04-11 23:23:00,
2013-04-11 17:24:00,46.4,19.5,29.72,North,0,11.2,18.1,34,0.00,,,0.00,WUHU216HW,2013-04-11 23:24:00,
2013-04-11 17:26:00,46.4,20.1,29.72,North,0,14.3,18.1,35,0.00,,,0.00,WUHU216HW,2013-04-11 23:26:00,
2013-04-11 17:28:00,46.4,20.1,29.72,NNW,338,16.3,19.2,35,0.00,,,0.00,WUHU216HW,2013-04-11 23:28:00,
2013-04-11 17:30:00,46.3,20.6,29.72,NNW,338,12.1,19.2,36,0.00,,,0.00,WUHU216HW,2013-04-11 23:30:00,
2013-04-11 17:31:00,46.3,20.6,29.72,NNW,338,12.1,19.2,36,0.00,,,0.00,WUHU216HW,2013-04-11 23:31:00,
2013-04-11 17:32:00,46.1,20.4,29.72,North,0,14.8,19.2,36,0.00,,,0.00,WUHU216HW,2013-04-11 23:32:00,
2013-04-11 17:33:00,45.9,20.3,29.72,North,0,11.6,19.2,36,0.00,,,0.00,WUHU216HW,2013-04-11 23:33:00,
2013-04-11 17:35:00,45.9,20.3,29.72,NW,315,15.0,19.2,36,0.00,,,0.00,WUHU216HW,2013-04-11 23:35:00,
2013-04-11 17:37:00,45.7,20.1,29.72,North,0,10.3,19.2,36,0.00,,,0.00,WUHU216HW,2013-04-11 23:37:00,
2013-04-11 17:38:00,45.9,20.9,29.72,NNW,338,9.2,16.3,37,0.00,,,0.00,WUHU216HW,2013-04-11 23:38:00,
2013-04-11 17:39:00,45.9,20.9,29.72,NNW,338,11.9,15.9,37,0.00,,,0.00,WUHU216HW,2013-04-11 23:39:00,
2013-04-11 17:40:00,45.9,20.3,29.72,North,0,15.0,15.9,36,0.00,,,0.00,WUHU216HW,2013-04-11 23:40:00,
2013-04-11 17:42:00,45.9,19.6,29.72,NW,315,17.4,18.6,35,0.00,,,0.00,WUHU216HW,2013-04-11 23:42:00,
2013-04-11 17:43:00,46.1,19.7,29.72,NNW,338,17.7,18.6,35,0.00,,,0.00,WUHU216HW,2013-04-11 23:43:00,
2013-04-11 17:44:00,45.9,19.6,29.72,NNW,338,14.3,18.6,35,0.00,,,0.00,WUHU216HW,2013-04-11 23:44:00,
2013-04-11 17:45:00,46.1,20.4,29.72,NW,315,13.2,18.6,36,0.00,,,0.00,WUHU216HW,2013-04-11 23:45:00,
2013-04-11 17:47:00,46.1,18.5,29.72,North,0,14.1,21.0,33,0.00,,,0.00,WUHU216HW,2013-04-11 23:47:00,
2013-04-11 17:48:00,46.1,19.1,29.72,NNW,338,17.4,21.0,34,0.00,,,0.00,WUHU216HW,2013-04-11 23:48:00,
2013-04-11 17:49:00,46.1,19.7,29.72,NNW,338,17.2,21.0,35,0.00,,,0.00,WUHU216HW,2013-04-11 23:49:00,
2013-04-11 17:50:00,46.1,19.7,29.72,NW,315,15.7,21.0,35,0.00,,,0.00,WUHU216HW,2013-04-11 23:50:00,
2013-04-11 17:52:00,45.9,18.3,29.72,NNW,338,17.0,21.0,33,0.00,,,0.00,WUHU216HW,2013-04-11 23:52:00,
2013-04-11 17:53:00,45.9,18.9,29.72,NNW,338,15.0,23.5,34,0.00,,,0.00,WUHU216HW,2013-04-11 23:53:00,
2013-04-11 17:54:00,45.7,18.1,29.72,NNW,338,15.0,23.5,33,0.00,,,0.00,WUHU216HW,2013-04-11 23:54:00,
2013-04-11 17:55:00,45.7,18.1,29.72,North,0,15.7,23.5,33,0.00,,,0.00,WUHU216HW,2013-04-11 23:55:00,
2013-04-11 17:57:00,45.5,19.3,29.72,North,0,13.4,23.5,35,0.00,,,0.00,WUHU216HW,2013-04-11 23:57:00,
2013-04-11 17:58:00,45.5,19.3,29.72,North,0,16.6,23.5,35,0.00,,,0.00,WUHU216HW,2013-04-11 23:58:00,
2013-04-11 17:59:00,45.5,19.3,29.72,NNW,338,21.0,23.5,35,0.00,,,0.00,WUHU216HW,2013-04-11 23:59:00,
2013-04-11 18:01:00,45.4,19.8,29.72,NNW,338,15.2,23.5,36,0.00,,,0.00,WUHU216HW,2013-04-12 00:01:00,
2013-04-11 18:03:00,45.4,20.4,29.72,NNW,338,17.2,23.5,37,0.00,,,0.00,WUHU216HW,2013-04-12 00:03:00,
2013-04-11 18:04:00,45.2,19.6,29.72,NNW,338,16.1,21.5,36,0.00,,,0.00,WUHU216HW,2013-04-12 00:04:00,
2013-04-11 18:07:00,45.2,21.0,29.72,North,0,9.8,21.0,38,0.00,,,0.00,WUHU216HW,2013-04-12 00:07:00,
2013-04-11 18:08:00,45.2,20.3,29.72,NNW,338,13.4,21.0,37,0.00,,,0.00,WUHU216HW,2013-04-12 00:08:00,
2013-04-11 18:09:00,45.0,20.1,29.72,North,0,16.6,22.8,37,0.00,,,0.00,WUHU216HW,2013-04-12 00:09:00,
2013-04-11 18:12:00,45.0,20.8,29.72,North,0,15.7,22.8,38,0.00,,,0.00,WUHU216HW,2013-04-12 00:12:00,
2013-04-11 18:13:00,45.0,20.8,29.72,NNW,338,13.2,22.8,38,0.00,,,0.00,WUHU216HW,2013-04-12 00:13:00,
2013-04-11 18:14:00,45.0,20.8,29.72,North,0,11.4,22.8,38,0.00,,,0.00,WUHU216HW,2013-04-12 00:14:00,
2013-04-11 18:15:00,44.8,20.6,29.72,NNW,338,16.6,22.8,38,0.00,,,0.00,WUHU216HW,2013-04-12 00:15:00,
2013-04-11 18:17:00,44.6,21.2,29.72,North,0,13.9,22.8,39,0.00,,,0.00,WUHU216HW,2013-04-12 00:17:00,
2013-04-11 18:18:00,44.6,21.2,29.72,NNW,338,15.0,22.8,39,0.00,,,0.00,WUHU216HW,2013-04-12 00:18:00,
2013-04-11 18:19:00,44.6,20.4,29.72,North,0,18.1,22.8,38,0.00,,,0.00,WUHU216HW,2013-04-12 00:19:00,
2013-04-11 18:20:00,44.6,20.4,29.73,NNW,338,15.9,25.1,38,0.00,,,0.00,WUHU216HW,2013-04-12 00:20:00,
2013-04-11 18:22:00,44.6,20.4,29.73,North,0,21.7,25.1,38,0.00,,,0.00,WUHU216HW,2013-04-12 00:22:00,
2013-04-11 18:23:00,44.6,20.4,29.73,North,0,19.7,25.1,38,0.00,,,0.00,WUHU216HW,2013-04-12 00:23:00,
2013-04-11 18:24:00,44.5,21.0,29.73,North,0,15.7,25.1,39,0.00,,,0.00,WUHU216HW,2013-04-12 00:24:00,
2013-04-11 18:25:00,44.5,21.0,29.73,NNW,338,15.7,25.1,39,0.00,,,0.00,WUHU216HW,2013-04-12 00:25:00,
2013-04-11 18:27:00,44.3,21.4,29.73,NNW,338,14.8,25.1,40,0.00,,,0.00,WUHU216HW,2013-04-12 00:27:00,
2013-04-11 18:28:00,44.3,21.4,29.73,NW,315,17.2,25.1,40,0.00,,,0.00,WUHU216HW,2013-04-12 00:28:00,
2013-04-11 18:29:00,44.3,21.4,29.73,NNW,338,12.5,25.1,40,0.00,,,0.00,WUHU216HW,2013-04-12 00:29:00,
2013-04-11 18:30:00,44.3,21.4,29.73,NNW,338,14.5,23.3,40,0.00,,,0.00,WUHU216HW,2013-04-12 00:30:00,
2013-04-11 18:32:00,44.3,22.0,29.73,NNW,338,11.6,20.4,41,0.00,,,0.00,WUHU216HW,2013-04-12 00:32:00,
2013-04-11 18:33:00,44.3,21.4,29.73,North,0,15.4,20.4,40,0.00,,,0.00,WUHU216HW,2013-04-12 00:33:00,
2013-04-11 18:34:00,44.3,21.4,29.73,North,0,15.4,20.4,40,0.00,,,0.00,WUHU216HW,2013-04-12 00:34:00,
2013-04-11 18:35:00,44.3,21.4,29.73,North,0,13.4,20.4,40,0.00,,,0.00,WUHU216HW,2013-04-12 00:35:00,
2013-04-11 18:38:00,44.1,21.3,29.73,North,0,12.8,20.4,40,0.00,,,0.00,WUHU216HW,2013-04-12 00:38:00,
2013-04-11 18:39:00,44.1,21.3,29.73,NNW,338,13.6,19.7,40,0.00,,,0.00,WUHU216HW,2013-04-12 00:39:00,
2013-04-11 18:40:00,44.1,21.3,29.73,NNW,338,14.5,19.7,40,0.00,,,0.00,WUHU216HW,2013-04-12 00:40:00,
2013-04-11 18:43:00,44.1,21.9,29.73,NNW,338,10.5,19.7,41,0.00,,,0.00,WUHU216HW,2013-04-12 00:43:00,
2013-04-11 18:44:00,44.1,21.9,29.73,North,0,9.4,19.7,41,0.00,,,0.00,WUHU216HW,2013-04-12 00:44:00,
2013-04-11 18:45:00,43.9,21.2,29.73,NNW,338,16.3,19.7,40,0.00,,,0.00,WUHU216HW,2013-04-12 00:45:00,
2013-04-11 18:48:00,43.9,21.7,29.73,NNW,338,13.0,17.2,41,0.00,,,0.00,WUHU216HW,2013-04-12 00:48:00,
2013-04-11 18:49:00,43.9,21.7,29.73,NNW,338,10.7,17.2,41,0.00,,,0.00,WUHU216HW,2013-04-12 00:49:00,
2013-04-11 18:50:00,43.9,21.7,29.73,NNW,338,8.3,17.2,41,0.00,,,0.00,WUHU216HW,2013-04-12 00:50:00,
2013-04-11 18:53:00,43.9,22.2,29.73,North,0,6.3,17.2,42,0.00,,,0.00,WUHU216HW,2013-04-12 00:53:00,
2013-04-11 18:54:00,43.7,22.1,29.73,North,0,6.0,17.2,42,0.00,,,0.00,WUHU216HW,2013-04-12 00:54:00,
2013-04-11 18:55:00,43.7,22.6,29.73,North,0,5.4,17.2,43,0.00,,,0.00,WUHU216HW,2013-04-12 00:55:00,
2013-04-11 18:58:00,43.6,21.9,29.73,North,0,6.7,15.2,42,0.00,,,0.00,WUHU216HW,2013-04-12 00:58:00,
2013-04-11 18:59:00,43.6,22.4,29.73,North,0,5.8,12.1,43,0.00,,,0.00,WUHU216HW,2013-04-12 00:59:00,
2013-04-11 19:00:00,43.6,22.4,29.73,North,0,6.3,10.1,43,0.00,,,0.00,WUHU216HW,2013-04-12 01:00:00,
2013-04-11 19:03:00,43.6,21.3,29.73,NNW,338,11.4,11.4,41,0.00,,,0.00,WUHU216HW,2013-04-12 01:03:00,
2013-04-11 19:04:00,43.6,21.3,29.73,NNW,338,10.7,11.4,41,0.00,,,0.00,WUHU216HW,2013-04-12 01:04:00,
2013-04-11 19:05:00,43.7,21.5,29.73,NNW,338,10.5,11.4,41,0.00,,,0.00,WUHU216HW,2013-04-12 01:05:00,
2013-04-11 19:08:00,43.6,21.9,29.73,NNW,338,7.6,11.4,42,0.00,,,0.00,WUHU216HW,2013-04-12 01:08:00,
2013-04-11 19:09:00,43.6,22.4,29.73,North,0,9.4,11.4,43,0.00,,,0.00,WUHU216HW,2013-04-12 01:09:00,
2013-04-11 19:10:00,43.4,22.2,29.73,NNW,338,8.5,11.4,43,0.00,,,0.00,WUHU216HW,2013-04-12 01:10:00,
2013-04-11 19:13:00,43.2,22.2,29.73,North,0,7.4,11.6,43,0.00,,,0.00,WUHU216HW,2013-04-12 01:13:00,
2013-04-11 19:14:00,43.2,22.2,29.73,NNW,338,11.0,11.6,43,0.00,,,0.00,WUHU216HW,2013-04-12 01:14:00,
2013-04-11 19:15:00,43.0,22.0,29.73,NNW,338,8.7,11.6,43,0.00,,,0.00,WUHU216HW,2013-04-12 01:15:00,
2013-04-11 19:18:00,42.8,21.8,29.73,NNW,338,13.2,16.3,43,0.00,,,0.00,WUHU216HW,2013-04-12 01:18:00,
2013-04-11 19:19:00,43.0,22.0,29.73,NNW,338,14.3,16.3,43,0.00,,,0.00,WUHU216HW,2013-04-12 01:19:00,
2013-04-11 19:20:00,42.8,21.2,29.73,North,0,17.0,17.4,42,0.00,,,0.00,WUHU216HW,2013-04-12 01:20:00,
2013-04-11 19:24:00,42.8,21.8,29.73,North,0,12.8,17.4,43,0.00,,,0.00,WUHU216HW,2013-04-12 01:24:00,
2013-04-11 19:25:00,42.8,21.2,29.73,NNW,338,11.4,17.4,42,0.00,,,0.00,WUHU216HW,2013-04-12 01:25:00,
2013-04-11 19:26:00,42.8,21.2,29.73,NNW,338,14.3,17.4,42,0.00,,,0.00,WUHU216HW,2013-04-12 01:26:00,
2013-04-11 19:29:00,42.8,21.2,29.73,NNW,338,12.3,17.4,42,0.00,,,0.00,WUHU216HW,2013-04-12 01:29:00,
2013-04-11 19:30:00,42.8,21.8,29.74,NNW,338,9.8,17.2,43,0.00,,,0.00,WUHU216HW,2013-04-12 01:30:00,
2013-04-11 19:31:00,42.8,21.8,29.74,NNW,338,14.3,17.2,43,0.00,,,0.00,WUHU216HW,2013-04-12 01:31:00,
2013-04-11 19:34:00,42.5,21.4,29.74,NNW,338,17.9,19.7,43,0.00,,,0.00,WUHU216HW,2013-04-12 01:34:00,
2013-04-11 19:35:00,42.3,21.2,29.74,NNW,338,19.2,19.7,43,0.00,,,0.00,WUHU216HW,2013-04-12 01:35:00,
2013-04-11 19:37:00,42.1,21.6,29.74,NNW,338,17.4,19.7,44,0.00,,,0.00,WUHU216HW,2013-04-12 01:37:00,
2013-04-11 19:39:00,42.1,21.6,29.74,NNW,338,17.2,19.7,44,0.00,,,0.00,WUHU216HW,2013-04-12 01:39:00,
2013-04-11 19:40:00,42.1,21.6,29.74,North,0,12.1,19.7,44,0.00,,,0.00,WUHU216HW,2013-04-12 01:40:00,
2013-04-11 19:42:00,42.1,21.6,29.74,NNW,338,15.0,19.7,44,0.00,,,0.00,WUHU216HW,2013-04-12 01:42:00,
2013-04-11 19:44:00,42.1,21.6,29.74,NNW,338,13.6,19.2,44,0.00,,,0.00,WUHU216HW,2013-04-12 01:44:00,
2013-04-11 19:45:00,42.1,21.6,29.74,NNW,338,13.6,19.2,44,0.00,,,0.00,WUHU216HW,2013-04-12 01:45:00,
2013-04-11 19:46:00,41.9,21.5,29.74,NNW,338,17.9,18.1,44,0.00,,,0.00,WUHU216HW,2013-04-12 01:46:00,
2013-04-11 19:48:00,41.9,21.5,29.74,NNW,338,14.5,18.1,44,0.00,,,0.00,WUHU216HW,2013-04-12 01:48:00,
2013-04-11 19:49:00,41.9,21.0,29.74,NNW,338,14.3,18.3,43,0.00,,,0.00,WUHU216HW,2013-04-12 01:49:00,
2013-04-11 19:50:00,41.9,21.0,29.74,NNW,338,14.3,18.3,43,0.00,,,0.00,WUHU216HW,2013-04-12 01:50:00,
2013-04-11 19:51:00,41.9,21.5,29.74,NW,315,12.1,18.3,44,0.00,,,0.00,WUHU216HW,2013-04-12 01:51:00,
2013-04-11 19:53:00,41.9,21.5,29.74,NNW,338,13.2,18.3,44,0.00,,,0.00,WUHU216HW,2013-04-12 01:53:00,
2013-04-11 19:55:00,41.9,21.5,29.74,NW,315,12.8,18.3,44,0.00,,,0.00,WUHU216HW,2013-04-12 01:55:00,
2013-04-11 19:57:00,42.1,21.2,29.75,NW,315,17.9,18.3,43,0.00,,,0.00,WUHU216HW,2013-04-12 01:57:00,
2013-04-11 19:58:00,41.9,20.4,29.75,NW,315,16.3,18.3,42,0.00,,,0.00,WUHU216HW,2013-04-12 01:58:00,
2013-04-11 20:00:00,42.1,21.2,29.75,NNW,338,13.6,17.9,43,0.00,,,0.00,WUHU216HW,2013-04-12 02:00:00,
2013-04-11 20:02:00,42.1,20.6,29.75,NNW,338,17.7,20.6,42,0.00,,,0.00,WUHU216HW,2013-04-12 02:02:00,
2013-04-11 20:03:00,41.9,20.4,29.75,NNW,338,19.9,20.6,42,0.00,,,0.00,WUHU216HW,2013-04-12 02:03:00,
2013-04-11 20:05:00,42.1,20.6,29.75,NNW,338,11.2,21.0,42,0.00,,,0.00,WUHU216HW,2013-04-12 02:05:00,
2013-04-11 20:07:00,41.9,20.4,29.75,NNW,338,17.2,21.0,42,0.00,,,0.00,WUHU216HW,2013-04-12 02:07:00,
2013-04-11 20:09:00,41.8,20.8,29.75,NNW,338,17.2,21.0,43,0.00,,,0.00,WUHU216HW,2013-04-12 02:09:00,
2013-04-11 20:10:00,41.8,20.8,29.75,North,0,16.8,21.0,43,0.00,,,0.00,WUHU216HW,2013-04-12 02:10:00,
2013-04-11 20:12:00,41.6,20.6,29.75,NNW,338,12.1,21.0,43,0.00,,,0.00,WUHU216HW,2013-04-12 02:12:00,
2013-04-11 20:14:00,41.4,20.4,29.75,NW,315,13.4,20.8,43,0.00,,,0.00,WUHU216HW,2013-04-12 02:14:00,
2013-04-11 20:15:00,41.4,21.0,29.75,NNW,338,11.6,20.8,44,0.00,,,0.00,WUHU216HW,2013-04-12 02:15:00,
2013-04-11 20:17:00,41.4,21.0,29.75,NW,315,10.5,17.7,44,0.00,,,0.00,WUHU216HW,2013-04-12 02:17:00,
2013-04-11 20:19:00,41.4,21.0,29.75,NW,315,9.8,17.7,44,0.00,,,0.00,WUHU216HW,2013-04-12 02:19:00,
2013-04-11 20:20:00,41.2,21.3,29.75,WNW,293,9.8,17.7,45,0.00,,,0.00,WUHU216HW,2013-04-12 02:20:00,
2013-04-11 20:21:00,41.2,21.3,29.75,NNW,338,14.1,17.7,45,0.00,,,0.00,WUHU216HW,2013-04-12 02:21:00,
2013-04-11 20:22:00,41.2,20.8,29.75,NW,315,16.6,17.4,44,0.00,,,0.00,WUHU216HW,2013-04-12 02:22:00,
2013-04-11 20:24:00,41.2,20.8,29.75,NW,315,17.7,17.7,44,0.00,,,0.00,WUHU216HW,2013-04-12 02:24:00,
2013-04-11 20:25:00,41.0,20.6,29.75,WNW,293,13.9,21.3,44,0.00,,,0.00,WUHU216HW,2013-04-12 02:25:00,
2013-04-11 20:26:00,41.0,20.6,29.75,NW,315,15.9,21.3,44,0.00,,,0.00,WUHU216HW,2013-04-12 02:26:00,
2013-04-11 20:27:00,41.0,20.1,29.75,NNW,338,15.9,21.3,43,0.00,,,0.00,WUHU216HW,2013-04-12 02:27:00,
2013-04-11 20:29:00,41.0,20.6,29.75,North,0,13.4,21.3,44,0.00,,,0.00,WUHU216HW,2013-04-12 02:29:00,
2013-04-11 20:30:00,41.0,20.6,29.75,NW,315,17.9,21.3,44,0.00,,,0.00,WUHU216HW,2013-04-12 02:30:00,
2013-04-11 20:32:00,41.0,20.1,29.75,NNW,338,21.9,21.9,43,0.00,,,0.00,WUHU216HW,2013-04-12 02:32:00,
2013-04-11 20:33:00,41.0,20.1,29.75,WNW,293,23.0,26.6,43,0.00,,,0.00,WUHU216HW,2013-04-12 02:33:00,
2013-04-11 20:34:00,41.0,20.1,29.76,NNW,338,18.6,26.6,43,0.00,,,0.00,WUHU216HW,2013-04-12 02:34:00,
2013-04-11 20:36:00,41.0,20.6,29.76,NNW,338,13.2,26.6,44,0.00,,,0.00,WUHU216HW,2013-04-12 02:36:00,
2013-04-11 20:37:00,41.0,20.1,29.76,NW,315,11.4,26.6,43,0.00,,,0.00,WUHU216HW,2013-04-12 02:37:00,
2013-04-11 20:38:00,41.0,20.6,29.76,West,270,8.7,26.6,44,0.00,,,0.00,WUHU216HW,2013-04-12 02:38:00,
2013-04-11 20:39:00,41.0,20.6,29.76,NW,315,7.6,26.6,44,0.00,,,0.00,WUHU216HW,2013-04-12 02:39:00,
2013-04-11 20:41:00,40.9,20.0,29.75,NW,315,6.5,26.6,43,0.00,,,0.00,WUHU216HW,2013-04-12 02:41:00,
2013-04-11 20:42:00,40.9,20.4,29.75,West,270,7.6,26.6,44,0.00,,,0.00,WUHU216HW,2013-04-12 02:42:00,
2013-04-11 20:43:00,40.9,20.4,29.75,NW,315,8.3,20.6,44,0.00,,,0.00,WUHU216HW,2013-04-12 02:43:00,
2013-04-11 20:45:00,40.7,20.4,29.75,NW,315,8.9,14.8,44,0.00,,,0.00,WUHU216HW,2013-04-12 02:45:00,
2013-04-11 20:46:00,40.7,19.8,29.75,NW,315,12.5,14.8,43,0.00,,,0.00,WUHU216HW,2013-04-12 02:46:00,
2013-04-11 20:47:00,40.7,19.3,29.75,WNW,293,12.5,19.5,42,0.00,,,0.00,WUHU216HW,2013-04-12 02:47:00,
2013-04-11 20:48:00,40.7,19.3,29.75,NNW,338,18.6,19.5,42,0.00,,,0.00,WUHU216HW,2013-04-12 02:48:00,
2013-04-11 20:50:00,40.7,19.3,29.75,NW,315,16.3,19.5,42,0.00,,,0.00,WUHU216HW,2013-04-12 02:50:00,
2013-04-11 20:51:00,40.9,19.5,29.75,NW,315,19.2,19.5,42,0.00,,,0.00,WUHU216HW,2013-04-12 02:51:00,
2013-04-11 20:52:00,40.7,19.3,29.76,NNW,338,10.3,19.5,42,0.00,,,0.00,WUHU216HW,2013-04-12 02:52:00,
2013-04-11 20:53:00,40.7,19.3,29.75,NW,315,14.3,19.5,42,0.00,,,0.00,WUHU216HW,2013-04-12 02:53:00,
2013-04-11 20:55:00,40.7,19.3,29.76,NW,315,9.4,19.5,42,0.00,,,0.00,WUHU216HW,2013-04-12 02:55:00,
2013-04-11 20:56:00,40.7,19.8,29.76,NNW,338,10.3,19.5,43,0.00,,,0.00,WUHU216HW,2013-04-12 02:56:00,
2013-04-11 20:57:00,40.7,19.8,29.76,NNW,338,13.0,19.2,43,0.00,,,0.00,WUHU216HW,2013-04-12 02:57:00,
2013-04-11 20:58:00,40.7,19.8,29.76,North,0,10.5,19.2,43,0.00,,,0.00,WUHU216HW,2013-04-12 02:58:00,
2013-04-11 21:00:00,40.7,19.8,29.76,NW,315,9.6,19.2,43,0.00,,,0.00,WUHU216HW,2013-04-12 03:00:00,
2013-04-11 21:02:00,40.5,19.6,29.76,NW,315,9.4,15.4,43,0.00,,,0.00,WUHU216HW,2013-04-12 03:02:00,
2013-04-11 21:03:00,40.5,19.6,29.76,WNW,293,9.6,15.4,43,0.00,,,0.00,WUHU216HW,2013-04-12 03:03:00,
2013-04-11 21:05:00,40.3,20.0,29.76,NW,315,10.3,15.4,44,0.00,,,0.00,WUHU216HW,2013-04-12 03:05:00,
2013-04-11 21:07:00,40.3,20.0,29.77,NNW,338,9.2,15.4,44,0.00,,,0.00,WUHU216HW,2013-04-12 03:07:00,
2013-04-11 21:08:00,40.3,19.4,29.77,NW,315,8.7,15.4,43,0.00,,,0.00,WUHU216HW,2013-04-12 03:08:00,
2013-04-11 21:10:00,40.1,19.8,29.77,NW,315,10.1,15.4,44,0.00,,,0.00,WUHU216HW,2013-04-12 03:10:00,
2013-04-11 21:12:00,40.0,19.6,29.77,NW,315,15.2,20.1,44,0.00,,,0.00,WUHU216HW,2013-04-12 03:12:00,
2013-04-11 21:13:00,40.0,19.6,29.77,NW,315,15.7,20.1,44,0.00,,,0.00,WUHU216HW,2013-04-12 03:13:00,
2013-04-11 21:16:00,40.0,19.6,29.77,NW,315,14.3,20.1,44,0.00,,,0.00,WUHU216HW,2013-04-12 03:16:00,
2013-04-11 21:17:00,39.8,19.5,29.77,NW,315,11.6,20.1,44,0.00,,,0.00,WUHU216HW,2013-04-12 03:17:00,
2013-04-11 21:18:00,39.8,20.0,29.77,NNW,338,11.4,20.1,45,0.00,,,0.00,WUHU216HW,2013-04-12 03:18:00,
2013-04-11 21:19:00,39.8,20.0,29.77,NW,315,9.6,20.1,45,0.00,,,0.00,WUHU216HW,2013-04-12 03:19:00,
2013-04-11 21:21:00,39.6,19.9,29.77,NW,315,11.9,19.2,45,0.00,,,0.00,WUHU216HW,2013-04-12 03:21:00,
2013-04-11 21:22:00,39.6,19.9,29.77,NW,315,12.1,19.2,45,0.00,,,0.00,WUHU216HW,2013-04-12 03:22:00,
2013-04-11 21:23:00,39.4,19.7,29.77,NW,315,8.9,19.2,45,0.00,,,0.00,WUHU216HW,2013-04-12 03:23:00,
2013-04-11 21:24:00,39.4,19.7,29.77,NW,315,11.2,19.2,45,0.00,,,0.00,WUHU216HW,2013-04-12 03:24:00,
2013-04-11 21:26:00,39.2,19.5,29.77,NNW,338,9.2,15.4,45,0.00,,,0.00,WUHU216HW,2013-04-12 03:26:00,
2013-04-11 21:27:00,39.2,19.5,29.77,NNW,338,6.9,15.4,45,0.00,,,0.00,WUHU216HW,2013-04-12 03:27:00,
2013-04-11 21:28:00,39.2,19.5,29.77,NW,315,10.7,15.4,45,0.00,,,0.00,WUHU216HW,2013-04-12 03:28:00,
2013-04-11 21:29:00,39.2,19.5,29.77,NNW,338,13.6,15.4,45,0.00,,,0.00,WUHU216HW,2013-04-12 03:29:00,
2013-04-11 21:31:00,39.2,19.5,29.77,NW,315,8.1,13.6,45,0.00,,,0.00,WUHU216HW,2013-04-12 03:31:00,
2013-04-11 21:33:00,39.2,19.5,29.78,NW,315,6.5,13.6,45,0.00,,,0.00,WUHU216HW,2013-04-12 03:33:00,
2013-04-11 21:34:00,39.1,19.4,29.78,NNW,338,8.7,13.6,45,0.00,,,0.00,WUHU216HW,2013-04-12 03:34:00,
2013-04-11 21:36:00,39.1,19.9,29.78,NNW,338,9.8,13.6,46,0.00,,,0.00,WUHU216HW,2013-04-12 03:36:00,
2013-04-11 21:38:00,39.1,19.4,29.78,NW,315,8.3,13.6,45,0.00,,,0.00,WUHU216HW,2013-04-12 03:38:00,
2013-04-11 21:39:00,39.1,19.9,29.78,WNW,293,6.5,13.6,46,0.00,,,0.00,WUHU216HW,2013-04-12 03:39:00,
2013-04-11 21:42:00,39.1,19.9,29.78,NW,315,7.8,11.4,46,0.00,,,0.00,WUHU216HW,2013-04-12 03:42:00,
2013-04-11 21:43:00,39.1,19.9,29.78,NW,315,6.9,11.4,46,0.00,,,0.00,WUHU216HW,2013-04-12 03:43:00,
2013-04-11 21:44:00,39.1,19.9,29.78,NW,315,6.7,11.4,46,0.00,,,0.00,WUHU216HW,2013-04-12 03:44:00,
2013-04-11 21:47:00,38.9,19.7,29.79,NNW,338,16.3,18.6,46,0.00,,,0.00,WUHU216HW,2013-04-12 03:47:00,
2013-04-11 21:48:00,38.9,19.7,29.79,NW,315,20.6,20.6,46,0.00,,,0.00,WUHU216HW,2013-04-12 03:48:00,
2013-04-11 21:49:00,38.9,19.2,29.79,WNW,293,12.3,20.6,45,0.00,,,0.00,WUHU216HW,2013-04-12 03:49:00,
2013-04-11 21:52:00,38.9,19.7,29.79,NW,315,13.4,20.6,46,0.00,,,0.00,WUHU216HW,2013-04-12 03:52:00,
2013-04-11 21:53:00,38.9,19.7,29.79,NW,315,16.3,20.6,46,0.00,,,0.00,WUHU216HW,2013-04-12 03:53:00,
2013-04-11 21:54:00,38.9,19.7,29.79,NW,315,17.9,20.6,46,0.00,,,0.00,WUHU216HW,2013-04-12 03:54:00,
2013-04-11 21:55:00,38.7,20.1,29.79,NW,315,15.2,20.6,47,0.00,,,0.00,WUHU216HW,2013-04-12 03:55:00,
2013-04-11 21:57:00,38.5,19.9,29.79,NNW,338,10.5,20.6,47,0.00,,,0.00,WUHU216HW,2013-04-12 03:57:00,
2013-04-11 21:58:00,38.5,19.9,29.79,NNW,338,8.3,19.7,47,0.00,,,0.00,WUHU216HW,2013-04-12 03:58:00,
2013-04-11 21:59:00,38.5,20.4,29.79,NNW,338,10.7,19.7,48,0.00,,,0.00,WUHU216HW,2013-04-12 03:59:00,
2013-04-11 22:00:00,38.3,20.3,29.79,NW,315,8.7,19.7,48,0.00,,,0.00,WUHU216HW,2013-04-12 04:00:00,
2013-04-11 22:05:00,37.8,20.4,29.79,NNW,338,9.6,15.0,49,0.00,,,0.00,WUHU216HW,2013-04-12 04:05:00,
2013-04-11 22:10:00,37.1,22.3,29.79,North,0,3.8,15.4,55,0.00,,,0.00,WUHU216HW,2013-04-12 04:10:00,
2013-04-11 22:11:00,36.9,22.2,29.79,North,0,3.8,15.4,55,0.00,,,0.00,WUHU216HW,2013-04-12 04:11:00,
2013-04-11 22:15:00,36.2,21.5,29.79,NNW,338,4.7,15.4,55,0.00,,,0.00,WUHU216HW,2013-04-12 04:15:00,
2013-04-11 22:16:00,36.0,21.8,29.79,NNW,338,6.3,15.4,56,0.00,,,0.00,WUHU216HW,2013-04-12 04:16:00,
2013-04-11 22:20:00,35.5,22.1,29.80,NNW,338,8.3,13.4,58,0.00,,,0.00,WUHU216HW,2013-04-12 04:20:00,
2013-04-11 22:21:00,35.5,22.6,29.80,NNW,338,6.3,13.4,59,0.00,,,0.00,WUHU216HW,2013-04-12 04:21:00,
2013-04-11 22:25:00,34.9,22.5,29.80,NNW,338,7.8,8.9,60,0.00,,,0.00,WUHU216HW,2013-04-12 04:25:00,
2013-04-11 22:27:00,34.9,22.5,29.80,NNW,338,6.9,10.1,60,0.00,,,0.00,WUHU216HW,2013-04-12 04:27:00,
2013-04-11 22:30:00,34.7,22.3,29.80,NNW,338,8.1,10.1,60,0.00,,,0.00,WUHU216HW,2013-04-12 04:30:00,
2013-04-11 22:32:00,34.6,22.5,29.80,NNW,338,7.8,10.1,61,0.00,,,0.00,WUHU216HW,2013-04-12 04:32:00,
2013-04-11 22:35:00,34.6,22.1,29.80,NW,315,6.0,9.2,60,0.00,,,0.00,WUHU216HW,2013-04-12 04:35:00,
2013-04-11 22:36:00,34.6,22.5,29.80,NW,315,6.0,9.2,61,0.00,,,0.00,WUHU216HW,2013-04-12 04:36:00,
2013-04-11 22:37:00,34.6,22.9,29.80,NW,315,7.8,9.2,62,0.00,,,0.00,WUHU216HW,2013-04-12 04:37:00,
2013-04-11 22:40:00,34.2,22.9,29.80,NW,315,6.9,9.2,63,0.00,,,0.00,WUHU216HW,2013-04-12 04:40:00,
2013-04-11 22:41:00,34.2,22.9,29.80,NW,315,6.5,9.2,63,0.00,,,0.00,WUHU216HW,2013-04-12 04:41:00,
2013-04-11 22:42:00,34.2,23.2,29.80,NW,315,7.6,9.2,64,0.00,,,0.00,WUHU216HW,2013-04-12 04:42:00,
2013-04-11 22:45:00,34.2,23.2,29.80,NNW,338,6.0,8.7,64,0.00,,,0.00,WUHU216HW,2013-04-12 04:45:00,
2013-04-11 22:46:00,34.2,23.2,29.80,NNW,338,6.0,8.7,64,0.00,,,0.00,WUHU216HW,2013-04-12 04:46:00,
2013-04-11 22:47:00,34.0,23.4,29.80,WNW,293,5.8,8.7,65,0.00,,,0.00,WUHU216HW,2013-04-12 04:47:00,
2013-04-11 22:50:00,33.8,23.2,29.80,NNW,338,5.6,8.3,65,0.00,,,0.00,WUHU216HW,2013-04-12 04:50:00,
2013-04-11 22:51:00,33.8,23.2,29.80,NW,315,5.6,8.3,65,0.00,,,0.00,WUHU216HW,2013-04-12 04:51:00,
2013-04-11 22:52:00,33.7,23.4,29.80,NW,315,5.6,8.3,66,0.00,,,0.00,WUHU216HW,2013-04-12 04:52:00,
2013-04-11 22:53:00,33.7,23.4,29.80,NW,315,5.6,8.3,66,0.00,,,0.00,WUHU216HW,2013-04-12 04:53:00,
2013-04-11 22:55:00,33.5,23.6,29.80,NW,315,4.9,6.9,67,0.00,,,0.00,WUHU216HW,2013-04-12 04:55:00,
2013-04-11 22:56:00,33.5,23.6,29.80,NW,315,4.9,6.9,67,0.00,,,0.00,WUHU216HW,2013-04-12 04:56:00,
2013-04-11 22:57:00,33.5,23.6,29.80,NW,315,5.4,6.9,67,0.00,,,0.00,WUHU216HW,2013-04-12 04:57:00,
2013-04-11 22:58:00,33.5,23.6,29.80,NW,315,5.4,6.9,67,0.00,,,0.00,WUHU216HW,2013-04-12 04:58:00,
2013-04-11 23:01:00,33.5,23.6,29.80,NW,315,5.6,6.9,67,0.00,,,0.00,WUHU216HW,2013-04-12 05:01:00,
2013-04-11 23:02:00,33.5,23.9,29.80,NW,315,6.0,6.5,68,0.00,,,0.00,WUHU216HW,2013-04-12 05:02:00,
2013-04-11 23:03:00,33.5,23.9,29.80,NW,315,5.8,6.5,68,0.00,,,0.00,WUHU216HW,2013-04-12 05:03:00,
2013-04-11 23:06:00,33.7,23.8,29.80,NW,315,6.3,6.7,67,0.00,,,0.00,WUHU216HW,2013-04-12 05:06:00,
2013-04-11 23:08:00,33.8,23.9,29.80,NW,315,7.4,7.8,67,0.00,,,0.00,WUHU216HW,2013-04-12 05:08:00,
2013-04-11 23:11:00,33.8,23.9,29.80,NW,315,5.8,7.8,67,0.00,,,0.00,WUHU216HW,2013-04-12 05:11:00,
2013-04-11 23:12:00,33.8,23.9,29.80,NW,315,6.0,7.8,67,0.00,,,0.00,WUHU216HW,2013-04-12 05:12:00,
2013-04-11 23:13:00,33.8,23.9,29.80,NW,315,5.6,7.8,67,0.00,,,0.00,WUHU216HW,2013-04-12 05:13:00,
2013-04-11 23:16:00,33.8,23.9,29.80,NNW,338,6.7,8.9,67,0.00,,,0.00,WUHU216HW,2013-04-12 05:16:00,
2013-04-11 23:17:00,34.0,24.1,29.80,NNW,338,6.0,8.9,67,0.00,,,0.00,WUHU216HW,2013-04-12 05:17:00,
2013-04-11 23:18:00,34.0,24.1,29.80,NNW,338,6.7,8.9,67,0.00,,,0.00,WUHU216HW,2013-04-12 05:18:00,
2013-04-11 23:22:00,34.0,24.1,29.80,NW,315,5.1,8.9,67,0.00,,,0.00,WUHU216HW,2013-04-12 05:22:00,
2013-04-11 23:23:00,34.0,24.1,29.80,NW,315,5.4,8.9,67,0.00,,,0.00,WUHU216HW,2013-04-12 05:23:00,
2013-04-11 23:27:00,33.7,24.1,29.80,NNW,338,7.6,7.6,68,0.00,,,0.00,WUHU216HW,2013-04-12 05:27:00,
2013-04-11 23:28:00,33.7,23.8,29.80,NW,315,7.2,8.7,67,0.00,,,0.00,WUHU216HW,2013-04-12 05:28:00,
2013-04-11 23:32:00,33.5,23.9,29.80,NW,315,8.1,8.7,68,0.00,,,0.00,WUHU216HW,2013-04-12 05:32:00,
2013-04-11 23:34:00,33.3,23.9,29.80,NW,315,6.5,8.9,68,0.00,,,0.00,WUHU216HW,2013-04-12 05:34:00,
2013-04-11 23:37:00,33.3,24.2,29.80,NW,315,8.7,9.8,69,0.00,,,0.00,WUHU216HW,2013-04-12 05:37:00,
2013-04-11 23:39:00,33.1,24.0,29.80,NW,315,6.9,9.8,69,0.00,,,0.00,WUHU216HW,2013-04-12 05:39:00,
2013-04-11 23:42:00,32.8,24.0,29.79,WNW,293,8.9,12.5,70,0.00,,,0.00,WUHU216HW,2013-04-12 05:42:00,
2013-04-11 23:44:00,32.9,24.2,29.79,West,270,9.8,12.5,70,0.00,,,0.00,WUHU216HW,2013-04-12 05:44:00,
2013-04-11 23:47:00,32.9,23.9,29.79,NW,315,9.2,12.5,69,0.00,,,0.00,WUHU216HW,2013-04-12 05:47:00,
2013-04-11 23:49:00,32.9,23.5,29.79,WNW,293,9.2,12.5,68,0.00,,,0.00,WUHU216HW,2013-04-12 05:49:00,
2013-04-11 23:52:00,33.7,22.7,29.79,NW,315,14.5,14.5,64,0.00,,,0.00,WUHU216HW,2013-04-12 05:52:00,
2013-04-11 23:54:00,34.2,22.5,29.79,NW,315,11.6,14.5,62,0.00,,,0.00,WUHU216HW,2013-04-12 05:54:00,
2013-04-11 23:57:00,34.9,22.5,29.79,NW,315,11.2,14.5,60,0.00,,,0.00,WUHU216HW,2013-04-12 05:57:00,
2013-04-11 23:58:00,34.9,22.5,29.79,NW,315,11.2,14.5,60,0.00,,,0.00,WUHU216HW,2013-04-12 05:58:00,
2013-04-11 23:59:00,35.1,22.7,29.79,NNW,338,8.1,14.5,60,0.00,,,0.00,WUHU216HW,2013-04-12 05:59:00,